ECMWFNIL_prec_pwat_000.txt.gz
Precipitable_Water
0.48 0.48 0.48 0.48 0.49 0.49 0.49 0.48 0.49 0.47 0.47 0.45 0.42 0.42 0.42 0.43 0.46 0.48 0.53 0.57 0.59 0.60 0.61 0.63 0.66 0.68 0.69 0.67 0.66 0.66 0.65 0.67 0.71 0.80 0.84 0.88 0.90 0.96 1.05 1.19 1.26 1.20
0.47 0.47 0.47 0.48 0.48 0.49 0.50 0.50 0.49 0.48 0.48 0.48 0.47 0.45 0.45 0.44 0.45 0.45 0.47 0.50 0.55 0.57 0.60 0.62 0.65 0.69 0.71 0.71 0.70 0.67 0.65 0.64 0.64 0.71 0.74 0.80 0.88 1.00 1.06 1.07 1.09 1.18
0.47 0.47 0.47 0.47 0.48 0.48 0.48 0.50 0.50 0.49 0.49 0.50 0.51 0.49 0.47 0.46 0.45 0.46 0.46 0.48 0.50 0.54 0.58 0.62 0.64 0.67 0.70 0.71 0.72 0.72 0.69 0.66 0.64 0.67 0.69 0.71 0.79 0.81 0.88 0.92 0.96 1.02
0.48 0.48 0.48 0.49 0.49 0.49 0.50 0.49 0.49 0.49 0.49 0.49 0.50 0.51 0.50 0.47 0.46 0.46 0.46 0.46 0.48 0.51 0.54 0.58 0.60 0.63 0.66 0.72 0.74 0.73 0.73 0.72 0.70 0.69 0.66 0.70 0.75 0.80 0.82 0.88 0.94 0.99
0.50 0.50 0.51 0.50 0.51 0.51 0.50 0.48 0.47 0.48 0.48 0.48 0.49 0.50 0.49 0.48 0.47 0.46 0.46 0.46 0.46 0.48 0.52 0.55 0.59 0.61 0.64 0.67 0.70 0.72 0.73 0.72 0.73 0.72 0.68 0.66 0.68 0.71 0.79 0.85 0.88 0.90
0.51 0.51 0.51 0.51 0.52 0.51 0.49 0.48 0.49 0.48 0.48 0.48 0.48 0.48 0.47 0.47 0.48 0.47 0.47 0.46 0.46 0.46 0.49 0.54 0.56 0.60 0.63 0.64 0.66 0.68 0.71 0.72 0.73 0.73 0.71 0.68 0.66 0.69 0.72 0.76 0.76 0.81
0.51 0.52 0.52 0.53 0.52 0.51 0.49 0.49 0.49 0.49 0.48 0.48 0.47 0.45 0.46 0.46 0.46 0.47 0.48 0.48 0.47 0.47 0.48 0.52 0.55 0.58 0.62 0.63 0.64 0.66 0.70 0.70 0.71 0.72 0.70 0.70 0.69 0.67 0.68 0.73 0.77 0.77
0.51 0.52 0.52 0.53 0.51 0.50 0.49 0.49 0.49 0.50 0.49 0.47 0.44 0.45 0.46 0.45 0.45 0.47 0.48 0.48 0.48 0.48 0.48 0.51 0.55 0.57 0.60 0.63 0.62 0.64 0.67 0.71 0.72 0.71 0.71 0.71 0.72 0.68 0.66 0.64 0.68 0.72
0.52 0.51 0.52 0.51 0.50 0.49 0.48 0.49 0.50 0.50 0.49 0.46 0.45 0.45 0.45 0.45 0.46 0.47 0.48 0.49 0.48 0.49 0.49 0.50 0.53 0.56 0.60 0.62 0.62 0.63 0.64 0.67 0.71 0.72 0.71 0.71 0.71 0.71 0.71 0.68 0.64 0.65
0.51 0.52 0.51 0.51 0.49 0.50 0.50 0.50 0.50 0.49 0.49 0.47 0.47 0.46 0.45 0.46 0.47 0.47 0.48 0.48 0.48 0.48 0.49 0.50 0.52 0.55 0.57 0.60 0.62 0.63 0.63 0.64 0.68 0.71 0.73 0.73 0.73 0.73 0.75 0.73 0.68 0.62
0.52 0.52 0.51 0.50 0.50 0.50 0.50 0.50 0.49 0.48 0.48 0.47 0.47 0.47 0.48 0.48 0.48 0.49 0.48 0.48 0.47 0.47 0.48 0.49 0.51 0.54 0.56 0.57 0.60 0.63 0.64 0.65 0.66 0.69 0.72 0.74 0.75 0.75 0.76 0.77 0.73 0.67
0.51 0.51 0.51 0.51 0.51 0.50 0.50 0.49 0.49 0.48 0.48 0.49 0.50 0.49 0.49 0.50 0.49 0.49 0.50 0.49 0.49 0.49 0.49 0.48 0.50 0.52 0.54 0.56 0.58 0.61 0.63 0.64 0.66 0.67 0.69 0.73 0.76 0.76 0.76 0.78 0.77 0.74
0.50 0.50 0.51 0.51 0.51 0.50 0.50 0.50 0.49 0.50 0.49 0.49 0.51 0.50 0.50 0.50 0.51 0.51 0.52 0.52 0.52 0.52 0.50 0.49 0.49 0.49 0.51 0.54 0.56 0.59 0.61 0.63 0.64 0.66 0.67 0.70 0.74 0.77 0.77 0.78 0.80 0.78
0.51 0.51 0.51 0.51 0.51 0.50 0.50 0.51 0.50 0.50 0.49 0.50 0.51 0.50 0.50 0.51 0.51 0.52 0.54 0.55 0.55 0.55 0.54 0.53 0.51 0.50 0.49 0.50 0.54 0.56 0.59 0.60 0.63 0.64 0.65 0.67 0.72 0.77 0.78 0.78 0.79 0.80
0.50 0.51 0.51 0.51 0.51 0.51 0.50 0.49 0.49 0.49 0.49 0.50 0.51 0.52 0.53 0.53 0.54 0.54 0.54 0.54 0.56 0.56 0.56 0.56 0.53 0.52 0.51 0.50 0.49 0.52 0.56 0.58 0.60 0.61 0.62 0.64 0.68 0.74 0.78 0.79 0.80 0.81
0.49 0.49 0.50 0.50 0.51 0.50 0.49 0.48 0.48 0.49 0.50 0.50 0.52 0.53 0.54 0.55 0.55 0.55 0.55 0.54 0.54 0.55 0.56 0.56 0.55 0.55 0.54 0.55 0.54 0.52 0.53 0.56 0.58 0.59 0.60 0.62 0.64 0.69 0.73 0.77 0.80 0.81
0.47 0.48 0.49 0.50 0.50 0.49 0.48 0.48 0.49 0.50 0.51 0.52 0.53 0.54 0.55 0.55 0.55 0.54 0.54 0.55 0.54 0.54 0.55 0.56 0.56 0.56 0.56 0.56 0.56 0.57 0.55 0.54 0.55 0.57 0.59 0.60 0.62 0.66 0.70 0.73 0.78 0.81
0.47 0.48 0.50 0.50 0.49 0.48 0.48 0.48 0.49 0.50 0.50 0.52 0.53 0.54 0.55 0.56 0.55 0.54 0.55 0.55 0.55 0.54 0.54 0.54 0.55 0.57 0.57 0.57 0.57 0.57 0.57 0.56 0.54 0.54 0.57 0.59 0.61 0.65 0.70 0.74 0.76 0.80
0.47 0.49 0.49 0.48 0.48 0.48 0.47 0.47 0.48 0.48 0.50 0.51 0.53 0.55 0.56 0.54 0.55 0.55 0.55 0.55 0.54 0.52 0.52 0.53 0.54 0.56 0.56 0.57 0.58 0.58 0.58 0.57 0.55 0.53 0.54 0.56 0.60 0.65 0.71 0.74 0.76 0.79
0.48 0.48 0.47 0.47 0.47 0.46 0.45 0.45 0.45 0.46 0.49 0.52 0.53 0.54 0.54 0.54 0.55 0.55 0.55 0.54 0.53 0.52 0.51 0.52 0.52 0.54 0.56 0.56 0.58 0.58 0.58 0.57 0.55 0.54 0.53 0.54 0.57 0.61 0.69 0.75 0.77 0.79
0.47 0.46 0.46 0.46 0.46 0.45 0.44 0.44 0.45 0.48 0.50 0.52 0.53 0.53 0.53 0.53 0.54 0.54 0.54 0.54 0.53 0.52 0.51 0.51 0.52 0.54 0.55 0.56 0.57 0.57 0.58 0.58 0.56 0.54 0.53 0.53 0.57 0.60 0.64 0.72 0.78 0.81
0.46 0.45 0.45 0.45 0.44 0.43 0.43 0.44 0.46 0.49 0.51 0.53 0.54 0.54 0.55 0.55 0.55 0.55 0.53 0.53 0.53 0.53 0.52 0.51 0.53 0.55 0.56 0.56 0.57 0.57 0.58 0.58 0.57 0.54 0.52 0.53 0.56 0.60 0.63 0.69 0.76 0.82
0.46 0.45 0.44 0.44 0.43 0.43 0.43 0.44 0.47 0.50 0.52 0.54 0.53 0.53 0.53 0.53 0.53 0.52 0.52 0.52 0.52 0.53 0.53 0.52 0.54 0.56 0.57 0.57 0.57 0.57 0.57 0.57 0.57 0.55 0.53 0.52 0.54 0.59 0.64 0.68 0.74 0.80
0.46 0.45 0.44 0.44 0.43 0.42 0.43 0.46 0.50 0.52 0.52 0.54 0.53 0.52 0.52 0.52 0.52 0.51 0.52 0.53 0.53 0.54 0.55 0.54 0.55 0.58 0.59 0.58 0.57 0.56 0.57 0.58 0.58 0.56 0.54 0.53 0.55 0.59 0.63 0.68 0.72 0.77
0.46 0.45 0.45 0.43 0.42 0.43 0.45 0.47 0.51 0.51 0.53 0.54 0.54 0.54 0.53 0.53 0.52 0.52 0.52 0.54 0.56 0.56 0.57 0.57 0.57 0.58 0.60 0.59 0.58 0.57 0.58 0.59 0.59 0.59 0.56 0.55 0.56 0.57 0.63 0.68 0.72 0.77
0.44 0.44 0.45 0.45 0.43 0.43 0.46 0.50 0.53 0.53 0.53 0.54 0.54 0.54 0.53 0.53 0.53 0.54 0.54 0.56 0.58 0.58 0.58 0.59 0.58 0.59 0.61 0.61 0.59 0.58 0.59 0.61 0.62 0.59 0.57 0.56 0.58 0.59 0.61 0.67 0.72 0.77

ECMWFNIL_prec_pwat_006.txt.gz
Precipitable_Water
0.57 0.56 0.53 0.51 0.51 0.51 0.54 0.50 0.50 0.49 0.50 0.49 0.47 0.47 0.49 0.54 0.56 0.56 0.55 0.53 0.51 0.51 0.49 0.47 0.46 0.46 0.47 0.47 0.48 0.49 0.49 0.57 0.61 0.63 0.61 0.61 0.61 0.63 0.68 0.74 0.81 0.95
0.55 0.56 0.54 0.53 0.51 0.52 0.54 0.54 0.52 0.50 0.49 0.50 0.49 0.50 0.51 0.52 0.54 0.55 0.55 0.54 0.54 0.54 0.55 0.55 0.54 0.51 0.48 0.47 0.50 0.49 0.48 0.51 0.53 0.59 0.58 0.60 0.63 0.62 0.61 0.67 0.74 0.82
0.56 0.54 0.54 0.52 0.52 0.52 0.53 0.54 0.53 0.51 0.50 0.51 0.52 0.53 0.53 0.53 0.51 0.53 0.56 0.55 0.54 0.54 0.54 0.54 0.53 0.52 0.49 0.48 0.48 0.47 0.49 0.49 0.50 0.55 0.56 0.56 0.60 0.63 0.63 0.64 0.67 0.71
0.56 0.55 0.54 0.53 0.53 0.54 0.55 0.54 0.52 0.51 0.51 0.50 0.50 0.52 0.54 0.56 0.56 0.55 0.53 0.54 0.54 0.53 0.53 0.52 0.50 0.50 0.48 0.47 0.47 0.47 0.48 0.49 0.51 0.54 0.53 0.55 0.57 0.60 0.62 0.64 0.65 0.67
0.57 0.56 0.55 0.53 0.53 0.55 0.56 0.53 0.51 0.52 0.52 0.53 0.54 0.54 0.52 0.51 0.51 0.52 0.52 0.52 0.52 0.52 0.51 0.50 0.49 0.48 0.48 0.46 0.46 0.45 0.46 0.46 0.48 0.50 0.51 0.50 0.53 0.56 0.60 0.63 0.63 0.63
0.59 0.57 0.56 0.55 0.54 0.53 0.53 0.52 0.53 0.53 0.53 0.52 0.52 0.53 0.52 0.52 0.52 0.51 0.50 0.50 0.50 0.49 0.49 0.49 0.48 0.48 0.47 0.46 0.46 0.45 0.44 0.44 0.45 0.47 0.48 0.51 0.53 0.55 0.56 0.60 0.63 0.63
0.56 0.57 0.55 0.55 0.55 0.54 0.53 0.53 0.54 0.54 0.54 0.54 0.54 0.51 0.52 0.52 0.51 0.50 0.49 0.48 0.47 0.47 0.46 0.46 0.46 0.46 0.47 0.46 0.45 0.44 0.45 0.44 0.44 0.44 0.44 0.45 0.51 0.54 0.56 0.56 0.58 0.62
0.58 0.58 0.57 0.56 0.55 0.55 0.54 0.54 0.55 0.55 0.54 0.54 0.52 0.53 0.54 0.52 0.51 0.51 0.50 0.49 0.47 0.47 0.46 0.46 0.45 0.45 0.46 0.46 0.44 0.43 0.43 0.45 0.44 0.43 0.43 0.43 0.46 0.49 0.55 0.57 0.57 0.58
0.60 0.58 0.57 0.56 0.55 0.55 0.55 0.56 0.56 0.56 0.57 0.55 0.54 0.54 0.55 0.54 0.53 0.52 0.50 0.49 0.48 0.47 0.47 0.46 0.46 0.45 0.46 0.46 0.45 0.45 0.44 0.43 0.44 0.43 0.43 0.42 0.42 0.45 0.50 0.56 0.57 0.56
0.58 0.59 0.56 0.55 0.55 0.56 0.55 0.55 0.55 0.56 0.57 0.55 0.55 0.55 0.54 0.54 0.53 0.51 0.50 0.49 0.47 0.46 0.46 0.46 0.46 0.46 0.47 0.47 0.46 0.46 0.45 0.44 0.45 0.45 0.44 0.43 0.42 0.43 0.45 0.49 0.54 0.57
0.58 0.58 0.56 0.55 0.55 0.55 0.55 0.55 0.56 0.56 0.57 0.56 0.55 0.54 0.53 0.52 0.51 0.51 0.49 0.48 0.46 0.45 0.45 0.46 0.47 0.47 0.47 0.47 0.48 0.48 0.47 0.47 0.46 0.47 0.47 0.47 0.46 0.44 0.44 0.46 0.51 0.55
0.58 0.57 0.55 0.54 0.54 0.54 0.54 0.55 0.56 0.56 0.55 0.56 0.55 0.53 0.52 0.51 0.50 0.49 0.48 0.47 0.47 0.47 0.47 0.48 0.48 0.49 0.48 0.48 0.48 0.48 0.48 0.48 0.48 0.48 0.48 0.49 0.50 0.50 0.47 0.45 0.45 0.51
0.57 0.55 0.54 0.54 0.55 0.56 0.57 0.56 0.56 0.55 0.54 0.53 0.53 0.51 0.50 0.48 0.47 0.46 0.47 0.46 0.47 0.47 0.48 0.48 0.49 0.50 0.51 0.51 0.50 0.49 0.49 0.48 0.48 0.49 0.49 0.50 0.51 0.53 0.53 0.51 0.47 0.47
0.57 0.56 0.55 0.56 0.56 0.56 0.55 0.55 0.53 0.53 0.53 0.53 0.51 0.49 0.47 0.46 0.45 0.45 0.46 0.47 0.47 0.47 0.48 0.49 0.49 0.49 0.50 0.50 0.50 0.50 0.49 0.49 0.50 0.49 0.50 0.50 0.51 0.52 0.53 0.54 0.54 0.51
0.57 0.56 0.56 0.55 0.54 0.53 0.52 0.51 0.51 0.51 0.50 0.49 0.48 0.47 0.47 0.46 0.46 0.46 0.46 0.46 0.47 0.48 0.48 0.49 0.49 0.49 0.50 0.50 0.50 0.50 0.50 0.50 0.50 0.50 0.50 0.50 0.50 0.51 0.52 0.53 0.54 0.55
0.53 0.54 0.54 0.53 0.52 0.50 0.50 0.50 0.50 0.48 0.48 0.47 0.47 0.46 0.45 0.45 0.45 0.46 0.46 0.45 0.45 0.46 0.47 0.48 0.49 0.50 0.51 0.52 0.52 0.51 0.51 0.51 0.51 0.51 0.51 0.51 0.51 0.50 0.50 0.52 0.53 0.55
0.52 0.53 0.53 0.50 0.50 0.49 0.49 0.48 0.47 0.47 0.47 0.46 0.45 0.45 0.44 0.44 0.44 0.43 0.44 0.44 0.43 0.43 0.44 0.46 0.48 0.50 0.52 0.53 0.54 0.54 0.54 0.53 0.52 0.51 0.51 0.50 0.50 0.49 0.49 0.50 0.52 0.54
0.52 0.52 0.50 0.48 0.48 0.48 0.47 0.47 0.46 0.45 0.44 0.44 0.44 0.43 0.43 0.43 0.42 0.42 0.43 0.42 0.42 0.43 0.43 0.45 0.47 0.50 0.51 0.51 0.52 0.53 0.54 0.53 0.53 0.52 0.52 0.51 0.50 0.50 0.49 0.50 0.50 0.51
0.52 0.49 0.48 0.47 0.47 0.47 0.46 0.45 0.44 0.43 0.42 0.42 0.41 0.42 0.42 0.41 0.42 0.42 0.42 0.42 0.41 0.41 0.42 0.45 0.47 0.49 0.50 0.50 0.51 0.51 0.52 0.52 0.51 0.51 0.51 0.50 0.51 0.51 0.50 0.50 0.50 0.50
0.50 0.48 0.46 0.46 0.46 0.46 0.45 0.44 0.43 0.42 0.42 0.42 0.42 0.42 0.41 0.42 0.42 0.41 0.40 0.40 0.41 0.42 0.43 0.45 0.47 0.49 0.50 0.50 0.50 0.50 0.51 0.51 0.51 0.50 0.50 0.50 0.50 0.50 0.50 0.50 0.50 0.49
0.49 0.47 0.46 0.45 0.45 0.45 0.44 0.43 0.42 0.42 0.42 0.42 0.41 0.41 0.41 0.41 0.40 0.39 0.39 0.40 0.41 0.44 0.45 0.46 0.48 0.50 0.50 0.50 0.50 0.50 0.51 0.50 0.50 0.50 0.50 0.49 0.50 0.50 0.51 0.50 0.50 0.50
0.47 0.46 0.45 0.44 0.44 0.44 0.43 0.43 0.43 0.42 0.41 0.41 0.41 0.40 0.41 0.41 0.40 0.40 0.39 0.40 0.42 0.44 0.45 0.45 0.48 0.49 0.49 0.50 0.50 0.50 0.50 0.50 0.50 0.49 0.49 0.49 0.49 0.50 0.50 0.50 0.50 0.50
0.48 0.45 0.44 0.44 0.44 0.43 0.43 0.42 0.42 0.42 0.42 0.41 0.38 0.39 0.39 0.39 0.38 0.38 0.40 0.41 0.43 0.45 0.45 0.46 0.47 0.49 0.49 0.49 0.49 0.49 0.49 0.48 0.49 0.49 0.49 0.48 0.48 0.50 0.50 0.50 0.50 0.49
0.47 0.45 0.43 0.43 0.43 0.42 0.42 0.42 0.42 0.41 0.39 0.39 0.37 0.37 0.37 0.38 0.38 0.39 0.42 0.44 0.44 0.45 0.46 0.45 0.46 0.48 0.49 0.49 0.48 0.48 0.48 0.47 0.48 0.48 0.48 0.49 0.50 0.52 0.52 0.52 0.51 0.51
0.46 0.45 0.43 0.43 0.42 0.42 0.42 0.40 0.39 0.38 0.37 0.36 0.36 0.37 0.38 0.39 0.40 0.41 0.43 0.45 0.45 0.46 0.47 0.46 0.46 0.47 0.48 0.48 0.48 0.48 0.49 0.49 0.49 0.48 0.47 0.48 0.51 0.51 0.53 0.53 0.53 0.52
0.45 0.45 0.45 0.45 0.43 0.42 0.41 0.39 0.38 0.36 0.35 0.35 0.37 0.38 0.38 0.39 0.41 0.43 0.43 0.44 0.45 0.46 0.46 0.47 0.46 0.47 0.48 0.48 0.48 0.49 0.49 0.50 0.51 0.50 0.49 0.51 0.53 0.53 0.53 0.54 0.54 0.54

ECMWFNIL_prec_pwat_009.txt.gz
Precipitable_Water
0.57 0.57 0.54 0.53 0.50 0.52 0.53 0.52 0.51 0.50 0.51 0.50 0.47 0.49 0.50 0.51 0.52 0.50 0.50 0.50 0.51 0.51 0.50 0.48 0.48 0.48 0.49 0.49 0.49 0.48 0.46 0.47 0.46 0.48 0.49 0.53 0.56 0.58 0.58 0.59 0.63 0.66
0.57 0.56 0.56 0.54 0.52 0.53 0.54 0.52 0.52 0.52 0.52 0.51 0.50 0.51 0.51 0.51 0.53 0.53 0.53 0.52 0.53 0.52 0.53 0.53 0.54 0.55 0.55 0.53 0.51 0.47 0.44 0.43 0.43 0.47 0.47 0.48 0.53 0.56 0.56 0.58 0.58 0.61
0.58 0.56 0.54 0.52 0.51 0.50 0.52 0.54 0.53 0.52 0.52 0.52 0.53 0.52 0.51 0.52 0.51 0.52 0.53 0.53 0.53 0.53 0.53 0.53 0.53 0.53 0.52 0.52 0.50 0.48 0.45 0.44 0.43 0.45 0.44 0.44 0.49 0.52 0.54 0.55 0.56 0.57
0.57 0.55 0.54 0.53 0.53 0.50 0.52 0.53 0.53 0.53 0.53 0.51 0.51 0.52 0.52 0.51 0.52 0.52 0.53 0.54 0.53 0.52 0.53 0.54 0.54 0.53 0.52 0.51 0.50 0.49 0.48 0.47 0.46 0.46 0.44 0.43 0.44 0.47 0.49 0.53 0.53 0.54
0.55 0.55 0.55 0.55 0.54 0.53 0.53 0.51 0.52 0.52 0.51 0.50 0.50 0.51 0.52 0.52 0.52 0.52 0.50 0.49 0.51 0.52 0.52 0.51 0.51 0.50 0.50 0.50 0.49 0.46 0.46 0.45 0.46 0.45 0.43 0.41 0.42 0.43 0.45 0.48 0.50 0.51
0.58 0.57 0.56 0.54 0.54 0.53 0.52 0.51 0.52 0.51 0.50 0.49 0.51 0.53 0.53 0.52 0.50 0.49 0.49 0.50 0.51 0.50 0.50 0.49 0.48 0.48 0.48 0.48 0.47 0.46 0.45 0.45 0.46 0.46 0.44 0.41 0.41 0.42 0.42 0.43 0.46 0.48
0.59 0.58 0.56 0.56 0.54 0.54 0.53 0.52 0.52 0.52 0.50 0.51 0.52 0.51 0.52 0.50 0.48 0.48 0.50 0.51 0.51 0.50 0.48 0.48 0.47 0.47 0.47 0.47 0.45 0.44 0.44 0.44 0.44 0.44 0.43 0.42 0.42 0.41 0.42 0.41 0.42 0.44
0.61 0.60 0.58 0.56 0.54 0.54 0.52 0.51 0.51 0.50 0.51 0.52 0.50 0.51 0.51 0.49 0.48 0.51 0.51 0.51 0.49 0.49 0.48 0.48 0.47 0.47 0.47 0.46 0.45 0.44 0.43 0.44 0.43 0.44 0.43 0.43 0.42 0.40 0.41 0.42 0.41 0.40
0.62 0.60 0.58 0.56 0.54 0.54 0.52 0.51 0.51 0.51 0.52 0.50 0.49 0.49 0.50 0.50 0.50 0.51 0.51 0.50 0.49 0.48 0.47 0.46 0.46 0.45 0.46 0.46 0.45 0.44 0.43 0.43 0.44 0.44 0.43 0.42 0.41 0.42 0.43 0.44 0.42 0.40
0.61 0.60 0.58 0.56 0.54 0.55 0.54 0.53 0.53 0.51 0.52 0.50 0.50 0.50 0.50 0.51 0.52 0.52 0.50 0.49 0.47 0.46 0.46 0.45 0.44 0.44 0.45 0.45 0.45 0.44 0.44 0.43 0.44 0.44 0.45 0.44 0.43 0.43 0.44 0.45 0.45 0.44
0.60 0.59 0.57 0.56 0.55 0.56 0.54 0.54 0.52 0.52 0.52 0.51 0.50 0.50 0.51 0.51 0.51 0.50 0.48 0.46 0.45 0.44 0.44 0.44 0.44 0.44 0.44 0.45 0.46 0.46 0.46 0.45 0.45 0.45 0.46 0.46 0.46 0.46 0.46 0.47 0.47 0.46
0.59 0.57 0.56 0.56 0.56 0.56 0.55 0.54 0.53 0.52 0.52 0.52 0.52 0.50 0.50 0.50 0.48 0.47 0.46 0.44 0.44 0.44 0.44 0.44 0.45 0.45 0.45 0.45 0.46 0.46 0.46 0.46 0.47 0.47 0.47 0.47 0.47 0.47 0.47 0.47 0.47 0.48
0.59 0.58 0.58 0.57 0.57 0.57 0.56 0.54 0.53 0.53 0.52 0.51 0.51 0.49 0.47 0.46 0.45 0.44 0.45 0.44 0.43 0.43 0.43 0.44 0.44 0.45 0.45 0.45 0.44 0.45 0.45 0.45 0.45 0.46 0.47 0.47 0.48 0.48 0.48 0.48 0.48 0.48
0.61 0.61 0.60 0.60 0.59 0.59 0.57 0.55 0.53 0.52 0.51 0.51 0.49 0.46 0.45 0.44 0.44 0.44 0.44 0.44 0.43 0.43 0.44 0.45 0.44 0.44 0.44 0.45 0.45 0.45 0.45 0.46 0.46 0.46 0.46 0.46 0.47 0.48 0.48 0.48 0.48 0.49
0.64 0.64 0.64 0.62 0.61 0.59 0.56 0.54 0.53 0.52 0.50 0.48 0.47 0.45 0.45 0.45 0.45 0.44 0.43 0.43 0.43 0.43 0.43 0.44 0.43 0.43 0.43 0.44 0.44 0.45 0.46 0.46 0.47 0.48 0.48 0.47 0.47 0.48 0.49 0.49 0.50 0.50
0.67 0.66 0.64 0.63 0.60 0.57 0.56 0.54 0.52 0.50 0.48 0.46 0.45 0.45 0.45 0.44 0.44 0.44 0.43 0.42 0.41 0.41 0.42 0.41 0.41 0.41 0.41 0.41 0.42 0.43 0.45 0.46 0.46 0.47 0.48 0.48 0.48 0.47 0.47 0.48 0.48 0.48
0.68 0.67 0.65 0.62 0.60 0.58 0.55 0.53 0.50 0.48 0.46 0.45 0.45 0.44 0.44 0.44 0.44 0.42 0.42 0.42 0.40 0.40 0.39 0.40 0.40 0.40 0.39 0.39 0.40 0.41 0.43 0.44 0.44 0.45 0.46 0.46 0.46 0.46 0.45 0.46 0.48 0.49
0.68 0.66 0.64 0.62 0.60 0.57 0.54 0.51 0.49 0.47 0.46 0.45 0.44 0.44 0.44 0.43 0.42 0.42 0.41 0.41 0.40 0.40 0.39 0.39 0.40 0.40 0.39 0.38 0.39 0.42 0.43 0.44 0.44 0.43 0.44 0.44 0.44 0.44 0.44 0.45 0.45 0.46
0.67 0.65 0.62 0.60 0.58 0.55 0.52 0.50 0.48 0.47 0.45 0.44 0.43 0.43 0.42 0.41 0.42 0.41 0.40 0.40 0.39 0.38 0.38 0.39 0.38 0.39 0.37 0.38 0.41 0.43 0.43 0.44 0.44 0.44 0.43 0.42 0.43 0.43 0.43 0.43 0.44 0.44
0.65 0.63 0.60 0.58 0.56 0.54 0.52 0.49 0.47 0.45 0.45 0.45 0.44 0.44 0.42 0.42 0.41 0.40 0.40 0.39 0.38 0.37 0.37 0.37 0.37 0.38 0.39 0.41 0.42 0.43 0.44 0.45 0.45 0.45 0.45 0.44 0.44 0.44 0.44 0.43 0.43 0.43
0.63 0.62 0.60 0.57 0.54 0.51 0.49 0.47 0.46 0.45 0.45 0.45 0.44 0.43 0.42 0.41 0.40 0.38 0.38 0.37 0.37 0.37 0.36 0.35 0.37 0.39 0.41 0.42 0.43 0.43 0.44 0.45 0.45 0.45 0.44 0.44 0.44 0.45 0.45 0.45 0.45 0.45
0.63 0.61 0.58 0.56 0.52 0.49 0.47 0.46 0.46 0.45 0.44 0.46 0.45 0.44 0.43 0.41 0.40 0.38 0.36 0.35 0.35 0.35 0.35 0.35 0.38 0.40 0.41 0.42 0.43 0.43 0.44 0.44 0.43 0.43 0.42 0.42 0.42 0.43 0.43 0.44 0.44 0.45
0.63 0.61 0.58 0.54 0.51 0.48 0.47 0.46 0.46 0.46 0.46 0.46 0.43 0.42 0.40 0.38 0.35 0.32 0.33 0.33 0.33 0.34 0.34 0.35 0.38 0.40 0.41 0.42 0.42 0.43 0.43 0.42 0.42 0.41 0.41 0.40 0.40 0.41 0.42 0.42 0.43 0.43
0.62 0.59 0.56 0.51 0.49 0.48 0.47 0.47 0.46 0.45 0.44 0.43 0.40 0.38 0.34 0.31 0.32 0.32 0.33 0.34 0.34 0.33 0.35 0.36 0.37 0.40 0.42 0.42 0.43 0.43 0.43 0.42 0.42 0.41 0.40 0.40 0.40 0.40 0.41 0.41 0.42 0.43
0.61 0.57 0.52 0.49 0.47 0.47 0.46 0.45 0.43 0.41 0.40 0.39 0.35 0.33 0.32 0.33 0.33 0.32 0.31 0.30 0.32 0.34 0.36 0.37 0.38 0.40 0.42 0.43 0.44 0.44 0.44 0.43 0.42 0.41 0.39 0.39 0.40 0.39 0.41 0.42 0.42 0.44
0.59 0.52 0.50 0.48 0.47 0.45 0.43 0.42 0.41 0.38 0.36 0.34 0.34 0.34 0.33 0.33 0.31 0.29 0.28 0.30 0.33 0.35 0.37 0.38 0.39 0.41 0.43 0.44 0.44 0.44 0.45 0.44 0.43 0.41 0.39 0.40 0.41 0.41 0.41 0.42 0.44 0.45

ECMWFNIL_prec_pwat_015.txt.gz
Precipitable_Water
0.53 0.53 0.52 0.53 0.54 0.54 0.52 0.49 0.49 0.47 0.45 0.44 0.43 0.43 0.44 0.47 0.51 0.52 0.53 0.54 0.54 0.53 0.51 0.50 0.49 0.47 0.46 0.46 0.46 0.46 0.46 0.45 0.45 0.46 0.45 0.44 0.42 0.40 0.38 0.38 0.38 0.37
0.56 0.55 0.54 0.54 0.55 0.57 0.55 0.53 0.51 0.50 0.49 0.48 0.46 0.46 0.48 0.50 0.52 0.53 0.53 0.53 0.53 0.52 0.51 0.50 0.49 0.46 0.46 0.45 0.46 0.46 0.45 0.46 0.44 0.48 0.45 0.43 0.43 0.42 0.41 0.41 0.40 0.40
0.60 0.57 0.54 0.52 0.53 0.55 0.55 0.55 0.55 0.55 0.53 0.51 0.50 0.49 0.49 0.52 0.52 0.53 0.53 0.52 0.51 0.50 0.50 0.49 0.47 0.47 0.46 0.46 0.46 0.45 0.44 0.44 0.43 0.46 0.45 0.43 0.43 0.42 0.41 0.41 0.40 0.40
0.63 0.61 0.57 0.54 0.55 0.55 0.57 0.56 0.56 0.57 0.57 0.53 0.51 0.51 0.50 0.51 0.52 0.51 0.52 0.52 0.50 0.48 0.48 0.47 0.46 0.46 0.47 0.47 0.46 0.45 0.45 0.44 0.45 0.45 0.43 0.43 0.43 0.42 0.42 0.42 0.41 0.41
0.65 0.64 0.62 0.59 0.59 0.59 0.58 0.56 0.56 0.58 0.57 0.56 0.56 0.55 0.52 0.52 0.51 0.51 0.51 0.50 0.48 0.47 0.47 0.46 0.46 0.46 0.47 0.47 0.46 0.44 0.43 0.43 0.43 0.43 0.42 0.40 0.42 0.42 0.42 0.41 0.40 0.39
0.71 0.69 0.67 0.63 0.61 0.60 0.59 0.57 0.57 0.59 0.59 0.58 0.57 0.57 0.54 0.53 0.52 0.51 0.50 0.47 0.47 0.48 0.46 0.45 0.45 0.46 0.47 0.47 0.46 0.44 0.43 0.42 0.42 0.42 0.40 0.39 0.40 0.42 0.42 0.41 0.40 0.38
0.72 0.71 0.69 0.68 0.65 0.64 0.62 0.62 0.62 0.63 0.63 0.62 0.62 0.58 0.57 0.55 0.53 0.51 0.49 0.47 0.47 0.47 0.45 0.45 0.46 0.46 0.48 0.47 0.44 0.42 0.42 0.41 0.41 0.40 0.38 0.38 0.39 0.39 0.40 0.40 0.39 0.38
0.75 0.73 0.71 0.69 0.66 0.64 0.64 0.64 0.64 0.65 0.66 0.66 0.62 0.60 0.59 0.57 0.55 0.52 0.48 0.49 0.47 0.46 0.46 0.47 0.48 0.48 0.48 0.46 0.43 0.41 0.40 0.41 0.40 0.39 0.38 0.38 0.39 0.38 0.39 0.39 0.38 0.36
0.79 0.76 0.72 0.70 0.67 0.65 0.63 0.64 0.65 0.66 0.67 0.65 0.63 0.62 0.61 0.59 0.56 0.52 0.50 0.50 0.48 0.47 0.47 0.48 0.48 0.47 0.47 0.45 0.43 0.42 0.40 0.40 0.41 0.40 0.39 0.38 0.38 0.38 0.39 0.39 0.38 0.36
0.80 0.78 0.75 0.72 0.70 0.69 0.66 0.66 0.67 0.68 0.69 0.66 0.64 0.63 0.61 0.60 0.57 0.54 0.52 0.50 0.48 0.48 0.48 0.48 0.47 0.46 0.45 0.44 0.43 0.42 0.41 0.40 0.40 0.40 0.40 0.39 0.39 0.38 0.39 0.39 0.38 0.37
0.82 0.81 0.77 0.73 0.72 0.72 0.70 0.69 0.68 0.68 0.69 0.67 0.66 0.65 0.64 0.61 0.57 0.55 0.52 0.50 0.48 0.47 0.47 0.47 0.47 0.45 0.44 0.43 0.43 0.43 0.41 0.40 0.39 0.39 0.38 0.38 0.38 0.38 0.39 0.39 0.39 0.37
0.87 0.85 0.81 0.77 0.75 0.76 0.74 0.72 0.70 0.69 0.68 0.68 0.68 0.65 0.65 0.61 0.57 0.56 0.53 0.50 0.48 0.48 0.48 0.47 0.47 0.46 0.44 0.43 0.42 0.41 0.41 0.40 0.39 0.38 0.37 0.37 0.37 0.37 0.37 0.38 0.38 0.37
0.86 0.85 0.85 0.83 0.80 0.80 0.81 0.77 0.72 0.71 0.70 0.69 0.70 0.68 0.64 0.60 0.59 0.57 0.54 0.51 0.50 0.49 0.48 0.47 0.46 0.45 0.44 0.43 0.42 0.41 0.39 0.38 0.37 0.36 0.36 0.35 0.35 0.34 0.34 0.35 0.35 0.36
0.85 0.84 0.85 0.88 0.88 0.85 0.85 0.83 0.76 0.73 0.72 0.73 0.72 0.68 0.65 0.62 0.59 0.55 0.54 0.52 0.50 0.48 0.48 0.47 0.45 0.45 0.44 0.43 0.41 0.40 0.38 0.37 0.37 0.36 0.35 0.34 0.34 0.33 0.33 0.33 0.33 0.33
0.94 0.91 0.88 0.88 0.91 0.89 0.86 0.84 0.77 0.73 0.74 0.73 0.70 0.67 0.66 0.65 0.61 0.57 0.54 0.52 0.50 0.49 0.47 0.47 0.45 0.44 0.43 0.42 0.40 0.39 0.39 0.37 0.37 0.36 0.35 0.33 0.32 0.32 0.32 0.33 0.33 0.33
0.95 0.94 0.92 0.90 0.88 0.89 0.88 0.88 0.81 0.76 0.74 0.73 0.70 0.68 0.67 0.64 0.62 0.59 0.55 0.52 0.50 0.49 0.48 0.46 0.45 0.44 0.44 0.43 0.42 0.40 0.39 0.38 0.37 0.35 0.34 0.32 0.31 0.31 0.31 0.33 0.33 0.34
0.93 0.92 0.90 0.89 0.89 0.92 0.89 0.91 0.91 0.83 0.80 0.79 0.75 0.72 0.68 0.66 0.64 0.60 0.57 0.54 0.52 0.50 0.49 0.48 0.47 0.45 0.44 0.42 0.41 0.39 0.37 0.35 0.33 0.32 0.32 0.31 0.31 0.30 0.30 0.31 0.33 0.34
0.80 0.80 0.81 0.84 0.89 0.95 0.97 0.96 0.90 0.85 0.82 0.79 0.75 0.70 0.67 0.65 0.63 0.59 0.58 0.56 0.54 0.52 0.50 0.49 0.48 0.46 0.43 0.40 0.37 0.34 0.33 0.31 0.30 0.30 0.30 0.30 0.30 0.30 0.31 0.31 0.31 0.32
0.72 0.74 0.75 0.77 0.78 0.81 0.91 0.90 0.88 0.83 0.81 0.77 0.73 0.70 0.67 0.64 0.62 0.59 0.56 0.57 0.56 0.53 0.50 0.50 0.47 0.44 0.40 0.37 0.34 0.31 0.29 0.29 0.29 0.29 0.29 0.29 0.30 0.30 0.30 0.30 0.30 0.31
0.60 0.65 0.69 0.73 0.75 0.75 0.76 0.84 0.89 0.85 0.83 0.77 0.72 0.68 0.66 0.65 0.63 0.59 0.57 0.57 0.56 0.54 0.51 0.48 0.43 0.40 0.37 0.33 0.31 0.30 0.29 0.29 0.29 0.29 0.28 0.29 0.29 0.30 0.30 0.30 0.30 0.30
0.53 0.59 0.65 0.69 0.71 0.71 0.71 0.73 0.79 0.80 0.75 0.71 0.68 0.66 0.64 0.63 0.62 0.59 0.57 0.56 0.55 0.53 0.49 0.44 0.41 0.38 0.34 0.32 0.31 0.30 0.29 0.29 0.29 0.29 0.28 0.28 0.29 0.30 0.31 0.31 0.32 0.32
0.53 0.56 0.61 0.64 0.66 0.69 0.71 0.72 0.74 0.73 0.68 0.67 0.65 0.64 0.65 0.65 0.63 0.60 0.58 0.56 0.53 0.49 0.45 0.42 0.40 0.37 0.35 0.34 0.32 0.30 0.28 0.28 0.28 0.28 0.27 0.28 0.29 0.30 0.31 0.32 0.33 0.33
0.53 0.56 0.59 0.65 0.70 0.70 0.70 0.70 0.72 0.68 0.68 0.66 0.61 0.61 0.60 0.61 0.60 0.58 0.57 0.53 0.50 0.47 0.43 0.40 0.39 0.38 0.36 0.34 0.31 0.29 0.28 0.28 0.27 0.27 0.27 0.28 0.28 0.30 0.31 0.32 0.33 0.33
0.52 0.57 0.60 0.68 0.71 0.71 0.72 0.69 0.67 0.64 0.59 0.58 0.58 0.58 0.57 0.58 0.59 0.56 0.54 0.52 0.50 0.45 0.43 0.41 0.40 0.38 0.35 0.32 0.30 0.29 0.28 0.27 0.27 0.27 0.27 0.28 0.28 0.30 0.31 0.32 0.33 0.34
0.55 0.58 0.60 0.66 0.70 0.71 0.73 0.69 0.65 0.59 0.59 0.61 0.61 0.59 0.57 0.56 0.55 0.52 0.53 0.51 0.48 0.46 0.45 0.42 0.39 0.35 0.32 0.30 0.29 0.28 0.28 0.28 0.28 0.28 0.27 0.27 0.28 0.29 0.31 0.32 0.32 0.33
0.59 0.61 0.65 0.68 0.70 0.71 0.71 0.68 0.66 0.63 0.63 0.62 0.59 0.57 0.53 0.51 0.51 0.49 0.48 0.47 0.48 0.46 0.42 0.39 0.34 0.31 0.30 0.29 0.28 0.28 0.29 0.29 0.30 0.28 0.27 0.27 0.29 0.29 0.29 0.30 0.31 0.32

ECMWFNIL_prec_pwat_021.txt.gz
Precipitable_Water
0.58 0.54 0.52 0.52 0.52 0.52 0.52 0.52 0.54 0.52 0.50 0.50 0.48 0.49 0.49 0.50 0.51 0.52 0.53 0.54 0.54 0.53 0.53 0.51 0.49 0.47 0.46 0.46 0.46 0.45 0.46 0.46 0.46 0.46 0.45 0.44 0.43 0.43 0.41 0.41 0.41 0.41
0.63 0.59 0.56 0.56 0.56 0.55 0.55 0.55 0.56 0.56 0.54 0.52 0.52 0.51 0.54 0.54 0.54 0.54 0.54 0.54 0.55 0.55 0.54 0.53 0.50 0.47 0.46 0.46 0.46 0.45 0.44 0.45 0.44 0.47 0.45 0.44 0.43 0.43 0.42 0.42 0.41 0.42
0.69 0.65 0.61 0.57 0.56 0.56 0.56 0.58 0.58 0.59 0.58 0.57 0.57 0.56 0.55 0.58 0.57 0.58 0.57 0.56 0.54 0.55 0.55 0.53 0.50 0.48 0.47 0.46 0.46 0.45 0.44 0.44 0.43 0.45 0.45 0.43 0.44 0.42 0.42 0.43 0.42 0.41
0.74 0.72 0.68 0.63 0.61 0.59 0.60 0.59 0.60 0.61 0.62 0.60 0.57 0.58 0.58 0.60 0.61 0.60 0.60 0.58 0.56 0.55 0.55 0.53 0.50 0.49 0.48 0.46 0.46 0.45 0.45 0.44 0.45 0.45 0.44 0.44 0.44 0.43 0.43 0.43 0.42 0.42
0.79 0.78 0.77 0.72 0.67 0.64 0.63 0.62 0.61 0.62 0.62 0.63 0.63 0.62 0.61 0.61 0.62 0.62 0.62 0.61 0.60 0.57 0.55 0.52 0.50 0.49 0.49 0.47 0.46 0.44 0.45 0.44 0.45 0.45 0.44 0.42 0.43 0.43 0.43 0.42 0.41 0.40
0.82 0.83 0.83 0.81 0.77 0.69 0.65 0.64 0.65 0.64 0.64 0.64 0.65 0.66 0.65 0.66 0.66 0.65 0.64 0.62 0.62 0.60 0.57 0.53 0.49 0.49 0.49 0.48 0.47 0.45 0.45 0.44 0.44 0.44 0.42 0.41 0.41 0.42 0.41 0.41 0.39 0.38
0.83 0.84 0.85 0.86 0.85 0.82 0.74 0.71 0.71 0.70 0.69 0.69 0.69 0.67 0.68 0.67 0.68 0.68 0.67 0.66 0.64 0.62 0.59 0.56 0.51 0.49 0.49 0.48 0.46 0.44 0.45 0.45 0.44 0.44 0.41 0.40 0.39 0.39 0.39 0.38 0.36 0.35
0.82 0.83 0.84 0.86 0.86 0.87 0.85 0.81 0.77 0.75 0.74 0.73 0.70 0.69 0.69 0.68 0.68 0.70 0.70 0.68 0.66 0.64 0.62 0.59 0.57 0.54 0.52 0.50 0.46 0.44 0.43 0.45 0.44 0.43 0.41 0.39 0.38 0.36 0.37 0.37 0.36 0.34
0.82 0.81 0.83 0.86 0.88 0.90 0.90 0.90 0.87 0.83 0.80 0.76 0.74 0.73 0.72 0.71 0.69 0.70 0.70 0.70 0.68 0.66 0.64 0.62 0.60 0.58 0.57 0.54 0.50 0.47 0.45 0.44 0.44 0.42 0.41 0.40 0.38 0.37 0.36 0.36 0.35 0.34
0.88 0.87 0.87 0.87 0.87 0.90 0.90 0.93 0.94 0.93 0.91 0.85 0.80 0.79 0.76 0.74 0.73 0.71 0.70 0.70 0.68 0.66 0.64 0.63 0.61 0.60 0.59 0.58 0.55 0.51 0.48 0.46 0.45 0.44 0.42 0.40 0.39 0.38 0.37 0.37 0.36 0.34
0.94 0.93 0.90 0.88 0.86 0.87 0.89 0.92 0.95 0.96 0.97 0.94 0.91 0.86 0.84 0.81 0.78 0.76 0.72 0.69 0.67 0.66 0.64 0.63 0.62 0.61 0.60 0.59 0.58 0.56 0.53 0.50 0.48 0.46 0.45 0.42 0.40 0.39 0.38 0.38 0.37 0.35
0.96 0.97 0.95 0.93 0.90 0.89 0.90 0.93 0.96 0.97 0.97 0.98 0.98 0.97 0.92 0.89 0.85 0.81 0.76 0.72 0.69 0.68 0.66 0.64 0.63 0.62 0.61 0.60 0.58 0.57 0.55 0.54 0.53 0.50 0.47 0.45 0.44 0.42 0.40 0.38 0.36 0.35
0.94 0.97 0.98 0.97 0.96 0.95 0.96 0.96 0.96 0.96 0.95 0.94 0.96 0.98 0.96 0.97 0.94 0.90 0.85 0.79 0.75 0.72 0.68 0.66 0.64 0.63 0.62 0.61 0.58 0.56 0.53 0.52 0.52 0.53 0.52 0.51 0.47 0.44 0.41 0.39 0.36 0.35
0.88 0.93 0.97 0.99 1.00 1.00 0.98 0.97 0.96 0.95 0.94 0.95 0.95 0.94 0.94 0.94 0.93 0.93 0.94 0.89 0.82 0.78 0.75 0.72 0.67 0.64 0.63 0.61 0.60 0.57 0.53 0.52 0.52 0.52 0.50 0.50 0.48 0.46 0.43 0.39 0.37 0.35
0.72 0.77 0.83 0.90 0.94 0.96 0.97 0.96 0.94 0.93 0.93 0.94 0.97 0.97 0.98 0.98 1.00 1.00 0.96 0.94 0.89 0.82 0.77 0.77 0.75 0.72 0.69 0.66 0.63 0.60 0.58 0.56 0.55 0.51 0.49 0.48 0.46 0.45 0.44 0.42 0.39 0.36
0.59 0.63 0.67 0.72 0.76 0.80 0.85 0.90 0.91 0.92 0.95 0.94 0.91 0.92 0.89 0.92 0.94 0.97 0.97 0.96 0.94 0.86 0.82 0.79 0.78 0.77 0.72 0.66 0.63 0.62 0.62 0.59 0.55 0.51 0.49 0.48 0.46 0.44 0.43 0.42 0.41 0.39
0.50 0.52 0.56 0.60 0.66 0.71 0.73 0.74 0.74 0.78 0.83 0.87 0.89 0.88 0.86 0.84 0.83 0.82 0.84 0.86 0.86 0.84 0.79 0.76 0.75 0.73 0.69 0.65 0.61 0.59 0.60 0.61 0.58 0.52 0.49 0.47 0.47 0.46 0.44 0.42 0.40 0.39
0.40 0.44 0.47 0.50 0.55 0.58 0.61 0.64 0.66 0.68 0.69 0.75 0.80 0.82 0.84 0.84 0.81 0.80 0.80 0.79 0.78 0.76 0.72 0.70 0.69 0.67 0.63 0.60 0.56 0.52 0.52 0.56 0.58 0.55 0.52 0.51 0.48 0.46 0.45 0.43 0.41 0.40
0.34 0.35 0.37 0.40 0.45 0.51 0.55 0.58 0.60 0.61 0.63 0.65 0.68 0.76 0.80 0.78 0.78 0.77 0.76 0.76 0.74 0.72 0.70 0.67 0.64 0.61 0.57 0.52 0.48 0.47 0.48 0.50 0.53 0.54 0.52 0.51 0.51 0.48 0.45 0.43 0.42 0.41
0.31 0.32 0.32 0.34 0.37 0.41 0.45 0.49 0.53 0.55 0.59 0.63 0.66 0.70 0.72 0.74 0.75 0.75 0.75 0.73 0.72 0.71 0.69 0.66 0.61 0.57 0.51 0.48 0.48 0.48 0.48 0.48 0.51 0.52 0.52 0.50 0.47 0.45 0.43 0.43 0.43 0.41
0.31 0.32 0.33 0.35 0.38 0.39 0.40 0.41 0.43 0.46 0.51 0.57 0.61 0.63 0.65 0.68 0.70 0.70 0.70 0.70 0.69 0.68 0.65 0.62 0.60 0.53 0.49 0.48 0.48 0.47 0.46 0.48 0.51 0.51 0.48 0.44 0.43 0.43 0.43 0.42 0.42 0.41
0.33 0.33 0.34 0.35 0.37 0.39 0.39 0.40 0.42 0.44 0.46 0.50 0.52 0.56 0.60 0.63 0.65 0.66 0.65 0.65 0.65 0.63 0.60 0.57 0.54 0.51 0.50 0.49 0.48 0.47 0.47 0.48 0.47 0.45 0.42 0.39 0.38 0.40 0.40 0.41 0.40 0.40
0.35 0.34 0.34 0.34 0.36 0.37 0.38 0.39 0.41 0.43 0.47 0.51 0.50 0.52 0.55 0.57 0.59 0.61 0.63 0.63 0.64 0.65 0.63 0.57 0.54 0.53 0.51 0.50 0.49 0.48 0.47 0.47 0.46 0.44 0.40 0.36 0.37 0.38 0.38 0.38 0.39 0.39
0.36 0.36 0.35 0.35 0.36 0.36 0.38 0.41 0.43 0.46 0.48 0.51 0.51 0.52 0.53 0.57 0.60 0.61 0.63 0.65 0.64 0.62 0.61 0.59 0.57 0.56 0.53 0.52 0.51 0.48 0.47 0.46 0.42 0.35 0.33 0.34 0.37 0.39 0.40 0.39 0.38 0.38
0.38 0.38 0.38 0.37 0.37 0.37 0.40 0.41 0.43 0.46 0.48 0.51 0.52 0.54 0.56 0.58 0.58 0.61 0.64 0.66 0.65 0.63 0.63 0.63 0.61 0.58 0.54 0.50 0.47 0.47 0.46 0.43 0.36 0.34 0.35 0.36 0.37 0.37 0.38 0.38 0.39 0.40
0.41 0.41 0.41 0.40 0.39 0.41 0.43 0.44 0.47 0.47 0.47 0.49 0.51 0.52 0.53 0.55 0.61 0.64 0.63 0.60 0.58 0.56 0.56 0.57 0.56 0.54 0.51 0.47 0.45 0.45 0.44 0.41 0.39 0.38 0.37 0.36 0.36 0.36 0.35 0.37 0.38 0.38

ECMWFNIL_prec_pwat_024.txt.gz
Precipitable_Water
0.68 0.68 0.65 0.59 0.57 0.58 0.62 0.58 0.59 0.60 0.58 0.57 0.57 0.58 0.60 0.62 0.62 0.60 0.60 0.59 0.58 0.56 0.54 0.52 0.51 0.50 0.50 0.50 0.50 0.50 0.50 0.50 0.50 0.49 0.48 0.48 0.47 0.46 0.45 0.44 0.44 0.45
0.70 0.69 0.68 0.66 0.62 0.61 0.63 0.63 0.62 0.61 0.60 0.60 0.60 0.61 0.63 0.65 0.63 0.64 0.64 0.61 0.59 0.58 0.56 0.54 0.52 0.51 0.51 0.51 0.50 0.49 0.49 0.49 0.47 0.49 0.47 0.47 0.48 0.47 0.44 0.44 0.43 0.43
0.73 0.71 0.69 0.67 0.66 0.65 0.63 0.65 0.64 0.64 0.64 0.65 0.63 0.64 0.67 0.68 0.63 0.65 0.68 0.66 0.63 0.62 0.58 0.55 0.52 0.51 0.51 0.50 0.49 0.49 0.48 0.46 0.46 0.48 0.48 0.46 0.47 0.46 0.45 0.47 0.44 0.41
0.77 0.76 0.74 0.71 0.71 0.71 0.70 0.67 0.66 0.66 0.67 0.69 0.66 0.68 0.71 0.67 0.64 0.66 0.68 0.68 0.68 0.66 0.63 0.59 0.54 0.52 0.51 0.51 0.50 0.49 0.48 0.48 0.48 0.48 0.46 0.46 0.46 0.46 0.44 0.44 0.42 0.43
0.83 0.82 0.81 0.79 0.78 0.77 0.77 0.71 0.68 0.67 0.67 0.69 0.71 0.71 0.70 0.68 0.66 0.67 0.68 0.67 0.69 0.68 0.67 0.62 0.59 0.56 0.53 0.51 0.51 0.49 0.48 0.48 0.47 0.49 0.49 0.47 0.47 0.46 0.44 0.44 0.42 0.41
0.88 0.87 0.85 0.83 0.83 0.83 0.82 0.81 0.76 0.71 0.70 0.70 0.72 0.73 0.71 0.71 0.70 0.70 0.71 0.70 0.71 0.70 0.68 0.66 0.62 0.60 0.57 0.56 0.53 0.52 0.49 0.49 0.48 0.47 0.47 0.47 0.47 0.46 0.44 0.44 0.41 0.41
0.85 0.86 0.86 0.88 0.87 0.87 0.87 0.88 0.87 0.82 0.77 0.76 0.77 0.75 0.75 0.73 0.71 0.72 0.72 0.72 0.72 0.73 0.71 0.68 0.65 0.63 0.62 0.60 0.57 0.54 0.51 0.51 0.49 0.48 0.46 0.47 0.48 0.45 0.45 0.44 0.41 0.39
0.84 0.85 0.87 0.88 0.86 0.87 0.88 0.90 0.92 0.91 0.90 0.86 0.81 0.81 0.80 0.77 0.75 0.76 0.76 0.75 0.73 0.73 0.72 0.71 0.68 0.67 0.65 0.64 0.61 0.59 0.56 0.54 0.50 0.49 0.46 0.47 0.44 0.44 0.46 0.43 0.42 0.41
0.94 0.89 0.86 0.85 0.84 0.85 0.86 0.89 0.92 0.95 0.98 0.96 0.92 0.89 0.87 0.84 0.81 0.81 0.79 0.78 0.76 0.74 0.73 0.71 0.69 0.67 0.67 0.65 0.64 0.63 0.61 0.59 0.56 0.53 0.50 0.48 0.46 0.45 0.43 0.43 0.40 0.41
1.00 1.00 0.97 0.94 0.90 0.88 0.85 0.86 0.88 0.92 0.97 0.97 0.97 1.00 0.96 0.91 0.89 0.87 0.85 0.82 0.78 0.76 0.73 0.71 0.69 0.68 0.66 0.65 0.64 0.63 0.63 0.62 0.61 0.58 0.57 0.55 0.52 0.50 0.47 0.46 0.44 0.41
1.00 1.03 1.01 1.00 1.00 1.00 0.97 0.97 0.95 0.93 0.94 0.95 0.96 0.96 0.99 1.01 0.99 0.98 0.95 0.90 0.84 0.80 0.77 0.75 0.71 0.69 0.67 0.66 0.66 0.66 0.64 0.64 0.63 0.61 0.60 0.58 0.58 0.57 0.53 0.51 0.49 0.46
1.00 1.05 1.04 1.02 1.02 1.02 1.01 1.01 1.03 1.01 1.00 0.99 0.98 0.97 0.98 0.98 0.96 0.97 0.96 0.96 0.95 0.95 0.91 0.84 0.78 0.75 0.71 0.67 0.66 0.66 0.65 0.65 0.63 0.63 0.61 0.59 0.59 0.58 0.58 0.58 0.55 0.52
1.00 1.01 1.01 1.02 1.04 1.05 1.04 1.03 1.04 1.05 1.05 1.03 1.02 1.00 0.98 0.97 0.98 0.98 0.98 0.94 0.94 0.96 0.94 0.93 0.90 0.84 0.78 0.74 0.71 0.70 0.68 0.66 0.64 0.63 0.61 0.60 0.59 0.57 0.56 0.55 0.53 0.52
0.83 0.94 1.00 1.05 1.07 1.08 1.06 1.04 1.05 1.05 1.06 1.05 1.04 1.00 0.98 0.99 0.99 0.98 1.00 0.98 0.96 0.95 0.94 0.94 0.93 0.91 0.87 0.82 0.77 0.74 0.73 0.72 0.69 0.65 0.61 0.60 0.58 0.56 0.55 0.53 0.51 0.50
0.57 0.61 0.67 0.73 0.81 0.90 0.98 1.02 1.04 1.05 1.05 1.05 1.03 1.02 1.01 1.01 0.99 0.97 0.96 0.95 0.95 0.94 0.92 0.93 0.92 0.92 0.91 0.89 0.82 0.79 0.77 0.73 0.73 0.70 0.65 0.60 0.56 0.54 0.55 0.56 0.54 0.52
0.48 0.49 0.50 0.52 0.54 0.59 0.65 0.76 0.84 0.91 0.97 1.00 1.01 1.02 1.01 0.99 0.98 0.97 0.95 0.93 0.94 0.95 0.94 0.92 0.88 0.87 0.88 0.87 0.83 0.78 0.74 0.70 0.69 0.66 0.64 0.61 0.57 0.53 0.52 0.53 0.56 0.57
0.41 0.42 0.43 0.44 0.48 0.51 0.52 0.54 0.62 0.68 0.68 0.73 0.79 0.87 0.93 0.96 0.96 0.97 0.97 0.93 0.88 0.85 0.86 0.88 0.88 0.86 0.83 0.83 0.82 0.78 0.74 0.68 0.63 0.60 0.59 0.58 0.56 0.54 0.52 0.50 0.51 0.55
0.39 0.40 0.40 0.41 0.41 0.42 0.47 0.52 0.54 0.58 0.60 0.62 0.65 0.67 0.74 0.82 0.84 0.88 0.90 0.89 0.88 0.85 0.85 0.83 0.82 0.80 0.78 0.77 0.76 0.72 0.68 0.63 0.59 0.57 0.54 0.53 0.51 0.49 0.48 0.47 0.48 0.49
0.39 0.38 0.38 0.38 0.40 0.41 0.43 0.47 0.48 0.49 0.51 0.54 0.56 0.61 0.65 0.68 0.73 0.78 0.81 0.84 0.85 0.82 0.80 0.81 0.78 0.76 0.75 0.72 0.69 0.67 0.64 0.61 0.56 0.54 0.51 0.50 0.48 0.47 0.46 0.45 0.46 0.45
0.37 0.37 0.37 0.37 0.38 0.39 0.40 0.40 0.42 0.43 0.44 0.46 0.50 0.54 0.55 0.58 0.64 0.69 0.73 0.76 0.76 0.75 0.75 0.75 0.72 0.72 0.70 0.67 0.65 0.63 0.61 0.58 0.54 0.52 0.50 0.48 0.46 0.45 0.45 0.45 0.45 0.44
0.35 0.35 0.36 0.36 0.37 0.37 0.38 0.38 0.38 0.40 0.43 0.45 0.47 0.48 0.48 0.48 0.51 0.55 0.61 0.65 0.68 0.70 0.69 0.67 0.67 0.67 0.65 0.63 0.62 0.59 0.55 0.53 0.53 0.51 0.49 0.48 0.47 0.47 0.46 0.45 0.45 0.45
0.35 0.34 0.35 0.36 0.37 0.38 0.38 0.38 0.39 0.38 0.39 0.43 0.45 0.48 0.50 0.53 0.54 0.54 0.55 0.56 0.58 0.60 0.61 0.60 0.60 0.60 0.58 0.57 0.56 0.53 0.51 0.51 0.53 0.51 0.49 0.48 0.47 0.46 0.45 0.44 0.44 0.44
0.35 0.35 0.35 0.37 0.38 0.37 0.37 0.39 0.39 0.39 0.40 0.43 0.43 0.44 0.47 0.50 0.53 0.54 0.55 0.55 0.54 0.56 0.54 0.54 0.55 0.55 0.56 0.54 0.52 0.49 0.49 0.50 0.51 0.50 0.48 0.48 0.47 0.46 0.45 0.45 0.45 0.46
0.38 0.37 0.37 0.37 0.38 0.38 0.38 0.40 0.42 0.43 0.43 0.45 0.43 0.44 0.46 0.51 0.55 0.55 0.53 0.53 0.54 0.54 0.54 0.54 0.54 0.54 0.54 0.52 0.51 0.50 0.51 0.50 0.49 0.49 0.49 0.47 0.46 0.46 0.46 0.45 0.46 0.46
0.38 0.39 0.39 0.39 0.39 0.40 0.41 0.41 0.42 0.43 0.45 0.47 0.47 0.48 0.49 0.54 0.56 0.52 0.51 0.54 0.54 0.55 0.56 0.55 0.55 0.55 0.54 0.52 0.50 0.48 0.48 0.51 0.52 0.51 0.48 0.47 0.46 0.44 0.42 0.42 0.44 0.47
0.40 0.40 0.40 0.39 0.40 0.41 0.43 0.43 0.45 0.45 0.45 0.46 0.50 0.52 0.53 0.52 0.50 0.50 0.52 0.52 0.52 0.54 0.56 0.58 0.57 0.55 0.52 0.49 0.47 0.47 0.47 0.48 0.46 0.43 0.41 0.41 0.40 0.39 0.39 0.42 0.45 0.46

ECMWFNIL_prec_pwat_027.txt.gz
Precipitable_Water
0.76 0.73 0.73 0.68 0.63 0.63 0.64 0.61 0.62 0.64 0.62 0.62 0.64 0.66 0.66 0.65 0.66 0.60 0.63 0.62 0.61 0.58 0.54 0.54 0.52 0.50 0.50 0.51 0.53 0.54 0.53 0.50 0.52 0.52 0.51 0.52 0.50 0.48 0.46 0.43 0.44 0.48
0.79 0.77 0.77 0.74 0.68 0.67 0.71 0.66 0.65 0.67 0.65 0.62 0.64 0.67 0.70 0.69 0.69 0.64 0.66 0.66 0.65 0.61 0.58 0.55 0.54 0.52 0.51 0.53 0.51 0.53 0.51 0.49 0.47 0.49 0.47 0.47 0.50 0.48 0.43 0.44 0.44 0.43
0.81 0.80 0.80 0.77 0.74 0.71 0.72 0.75 0.69 0.68 0.69 0.66 0.64 0.66 0.68 0.70 0.71 0.66 0.67 0.68 0.68 0.68 0.65 0.61 0.56 0.53 0.52 0.53 0.49 0.53 0.54 0.49 0.51 0.51 0.51 0.49 0.51 0.48 0.47 0.48 0.44 0.41
0.85 0.85 0.83 0.82 0.80 0.78 0.77 0.79 0.75 0.72 0.71 0.71 0.68 0.67 0.70 0.72 0.73 0.67 0.69 0.68 0.67 0.69 0.69 0.66 0.62 0.59 0.58 0.55 0.50 0.53 0.52 0.51 0.52 0.52 0.49 0.48 0.50 0.49 0.47 0.46 0.42 0.46
0.90 0.89 0.88 0.86 0.84 0.84 0.87 0.85 0.83 0.79 0.77 0.76 0.77 0.72 0.72 0.75 0.73 0.69 0.71 0.70 0.68 0.70 0.70 0.68 0.66 0.64 0.62 0.61 0.57 0.57 0.52 0.54 0.52 0.48 0.51 0.51 0.50 0.50 0.47 0.48 0.44 0.44
0.97 0.96 0.93 0.89 0.89 0.87 0.86 0.90 0.90 0.88 0.85 0.83 0.84 0.81 0.76 0.81 0.77 0.71 0.72 0.71 0.70 0.72 0.71 0.69 0.66 0.65 0.63 0.63 0.61 0.62 0.57 0.58 0.56 0.52 0.53 0.50 0.51 0.49 0.48 0.48 0.44 0.45
0.97 0.98 0.96 0.93 0.92 0.92 0.91 0.91 0.95 0.96 0.94 0.91 0.91 0.90 0.85 0.84 0.80 0.75 0.76 0.76 0.74 0.72 0.71 0.71 0.68 0.66 0.65 0.64 0.62 0.63 0.62 0.63 0.63 0.56 0.55 0.55 0.56 0.52 0.48 0.47 0.46 0.44
1.01 1.02 0.97 0.96 0.92 0.92 0.92 0.94 0.96 0.98 1.00 0.99 0.95 0.96 0.93 0.91 0.85 0.82 0.81 0.81 0.78 0.77 0.76 0.73 0.71 0.68 0.67 0.66 0.63 0.63 0.63 0.64 0.64 0.59 0.57 0.58 0.60 0.55 0.56 0.53 0.50 0.45
1.00 1.01 1.04 1.00 0.96 0.93 0.92 0.95 0.95 0.96 1.01 1.01 1.00 1.00 1.02 0.99 0.93 0.89 0.86 0.85 0.83 0.80 0.81 0.80 0.77 0.74 0.72 0.67 0.64 0.64 0.63 0.64 0.62 0.60 0.59 0.59 0.58 0.56 0.58 0.60 0.57 0.54
0.99 1.01 1.00 0.98 0.99 1.01 1.00 0.96 0.96 0.93 0.95 0.99 1.01 1.02 1.01 1.03 1.00 0.98 0.95 0.91 0.88 0.86 0.85 0.84 0.83 0.81 0.79 0.74 0.69 0.67 0.65 0.65 0.64 0.62 0.62 0.61 0.61 0.59 0.57 0.59 0.57 0.57
1.01 1.02 1.02 1.00 1.01 1.01 1.01 1.06 1.02 1.00 1.00 0.93 0.93 0.96 0.97 1.00 1.01 1.00 1.00 0.98 0.95 0.92 0.89 0.88 0.88 0.85 0.81 0.80 0.78 0.75 0.70 0.68 0.67 0.64 0.64 0.64 0.63 0.63 0.61 0.61 0.60 0.58
1.05 1.05 1.04 1.04 1.05 1.04 1.05 1.05 1.05 1.06 1.05 1.04 1.03 1.02 1.03 1.01 0.98 0.98 0.99 0.99 0.98 0.98 0.96 0.93 0.91 0.91 0.89 0.86 0.86 0.86 0.83 0.78 0.74 0.72 0.69 0.67 0.65 0.65 0.65 0.61 0.59 0.59
1.05 1.10 1.09 1.07 1.08 1.09 1.12 1.10 1.06 1.04 1.02 0.99 1.01 1.03 1.06 1.05 1.03 1.02 1.03 1.03 1.02 1.02 1.00 0.98 0.98 0.94 0.92 0.93 0.91 0.88 0.87 0.84 0.82 0.79 0.77 0.74 0.71 0.69 0.66 0.65 0.64 0.60
0.78 0.85 0.93 1.01 1.03 1.06 1.08 1.09 1.14 1.12 1.11 1.10 1.10 1.07 1.06 1.07 1.06 1.04 1.05 1.05 1.04 1.04 1.03 1.02 1.00 0.95 0.95 0.95 0.93 0.90 0.91 0.89 0.84 0.78 0.76 0.74 0.72 0.70 0.68 0.65 0.62 0.59
0.58 0.63 0.67 0.70 0.75 0.84 0.94 1.01 1.07 1.04 1.08 1.10 1.05 1.08 1.09 1.07 1.09 1.06 1.03 1.03 1.02 1.02 1.02 1.03 0.99 0.95 0.93 0.91 0.88 0.88 0.89 0.88 0.87 0.82 0.77 0.75 0.74 0.71 0.68 0.65 0.62 0.60
0.42 0.45 0.48 0.53 0.57 0.60 0.65 0.72 0.77 0.81 0.89 0.99 0.99 1.01 1.01 1.03 1.06 1.03 1.02 1.01 0.99 0.99 1.01 1.00 0.99 0.96 0.93 0.90 0.93 0.91 0.88 0.87 0.86 0.82 0.78 0.75 0.75 0.73 0.69 0.66 0.63 0.62
0.43 0.45 0.47 0.46 0.46 0.49 0.53 0.58 0.60 0.66 0.71 0.73 0.74 0.75 0.77 0.81 0.85 0.90 0.95 0.98 0.99 0.97 0.99 0.99 0.97 0.99 0.95 0.92 0.92 0.90 0.88 0.84 0.81 0.80 0.77 0.74 0.69 0.65 0.64 0.63 0.62 0.61
0.46 0.45 0.44 0.45 0.47 0.48 0.47 0.48 0.51 0.54 0.61 0.67 0.67 0.67 0.67 0.68 0.69 0.68 0.70 0.74 0.78 0.85 0.90 0.88 0.88 0.87 0.85 0.85 0.86 0.85 0.85 0.83 0.80 0.77 0.74 0.70 0.67 0.64 0.62 0.60 0.57 0.55
0.44 0.45 0.45 0.45 0.45 0.47 0.50 0.51 0.48 0.48 0.49 0.55 0.59 0.63 0.64 0.63 0.65 0.63 0.61 0.62 0.67 0.73 0.75 0.77 0.79 0.79 0.79 0.80 0.81 0.81 0.80 0.79 0.77 0.74 0.70 0.67 0.65 0.63 0.61 0.59 0.56 0.53
0.42 0.43 0.45 0.46 0.48 0.49 0.49 0.48 0.48 0.47 0.49 0.50 0.51 0.54 0.55 0.56 0.59 0.61 0.63 0.64 0.62 0.65 0.68 0.70 0.73 0.72 0.72 0.74 0.75 0.75 0.75 0.75 0.73 0.69 0.67 0.64 0.62 0.62 0.61 0.58 0.55 0.52
0.39 0.39 0.38 0.38 0.38 0.40 0.43 0.45 0.47 0.49 0.50 0.51 0.51 0.50 0.48 0.49 0.51 0.55 0.59 0.63 0.63 0.60 0.64 0.69 0.72 0.69 0.65 0.64 0.67 0.68 0.68 0.69 0.67 0.64 0.62 0.61 0.60 0.58 0.56 0.54 0.54 0.52
0.42 0.41 0.40 0.40 0.39 0.40 0.40 0.42 0.44 0.46 0.46 0.46 0.43 0.46 0.50 0.51 0.51 0.54 0.54 0.58 0.60 0.60 0.63 0.69 0.66 0.65 0.61 0.61 0.64 0.64 0.62 0.62 0.60 0.58 0.58 0.58 0.56 0.55 0.54 0.53 0.52 0.50
0.42 0.42 0.42 0.42 0.42 0.41 0.40 0.40 0.41 0.42 0.46 0.48 0.46 0.45 0.45 0.47 0.50 0.51 0.54 0.55 0.55 0.59 0.63 0.60 0.60 0.58 0.56 0.57 0.59 0.59 0.58 0.57 0.55 0.55 0.54 0.53 0.52 0.51 0.50 0.49 0.49 0.49
0.40 0.40 0.40 0.41 0.43 0.43 0.44 0.45 0.46 0.47 0.47 0.51 0.49 0.48 0.48 0.48 0.51 0.53 0.56 0.59 0.57 0.62 0.63 0.57 0.55 0.54 0.53 0.53 0.53 0.54 0.55 0.54 0.53 0.51 0.50 0.48 0.48 0.49 0.50 0.49 0.49 0.49
0.39 0.40 0.40 0.40 0.39 0.40 0.41 0.42 0.43 0.46 0.48 0.50 0.50 0.50 0.50 0.52 0.53 0.53 0.57 0.62 0.63 0.61 0.59 0.57 0.54 0.50 0.50 0.49 0.49 0.50 0.52 0.53 0.50 0.48 0.46 0.46 0.46 0.45 0.45 0.45 0.47 0.48
0.40 0.42 0.43 0.43 0.43 0.44 0.45 0.46 0.47 0.46 0.47 0.49 0.50 0.51 0.49 0.52 0.53 0.55 0.58 0.64 0.62 0.60 0.56 0.54 0.50 0.50 0.48 0.47 0.47 0.49 0.51 0.52 0.52 0.49 0.48 0.46 0.46 0.44 0.42 0.43 0.43 0.42

ECMWFNIL_prec_pwat_030.txt.gz
Precipitable_Water
0.75 0.77 0.72 0.66 0.71 0.68 0.65 0.60 0.63 0.61 0.59 0.63 0.64 0.63 0.62 0.64 0.63 0.58 0.63 0.61 0.60 0.55 0.51 0.49 0.48 0.46 0.46 0.49 0.54 0.53 0.48 0.48 0.48 0.49 0.46 0.44 0.42 0.44 0.42 0.42 0.44 0.49
0.75 0.77 0.73 0.71 0.69 0.75 0.75 0.68 0.67 0.68 0.64 0.64 0.67 0.67 0.67 0.67 0.67 0.61 0.64 0.63 0.64 0.61 0.57 0.54 0.51 0.50 0.51 0.50 0.48 0.51 0.48 0.47 0.45 0.45 0.45 0.47 0.46 0.44 0.41 0.40 0.40 0.47
0.79 0.78 0.77 0.75 0.70 0.73 0.78 0.77 0.74 0.75 0.71 0.69 0.68 0.70 0.69 0.69 0.67 0.64 0.66 0.66 0.66 0.65 0.63 0.60 0.58 0.55 0.54 0.54 0.47 0.54 0.52 0.47 0.48 0.48 0.51 0.50 0.50 0.44 0.45 0.45 0.40 0.43
0.82 0.82 0.82 0.82 0.79 0.77 0.82 0.81 0.80 0.78 0.81 0.77 0.70 0.72 0.74 0.73 0.72 0.67 0.67 0.67 0.67 0.67 0.66 0.63 0.61 0.59 0.59 0.58 0.53 0.57 0.56 0.52 0.53 0.50 0.48 0.45 0.48 0.48 0.46 0.42 0.40 0.39
0.83 0.86 0.88 0.87 0.88 0.87 0.83 0.84 0.84 0.83 0.81 0.84 0.82 0.78 0.77 0.77 0.77 0.73 0.70 0.69 0.69 0.69 0.69 0.67 0.65 0.62 0.61 0.61 0.55 0.60 0.57 0.59 0.59 0.52 0.54 0.51 0.50 0.48 0.46 0.47 0.41 0.43
0.88 0.91 0.92 0.91 0.92 0.89 0.88 0.88 0.89 0.87 0.86 0.85 0.87 0.88 0.86 0.86 0.84 0.80 0.76 0.74 0.73 0.72 0.72 0.71 0.69 0.66 0.64 0.64 0.58 0.62 0.58 0.59 0.59 0.54 0.58 0.57 0.54 0.51 0.50 0.48 0.44 0.44
0.95 0.97 0.97 0.96 0.92 0.90 0.90 0.91 0.91 0.90 0.89 0.90 0.91 0.92 0.92 0.91 0.91 0.90 0.86 0.83 0.80 0.76 0.76 0.75 0.73 0.69 0.67 0.66 0.62 0.62 0.62 0.61 0.62 0.57 0.58 0.58 0.58 0.55 0.55 0.53 0.49 0.53
1.00 1.02 1.02 1.00 0.96 0.94 0.90 0.88 0.90 0.91 0.90 0.91 0.94 0.96 0.96 0.95 0.95 0.97 0.95 0.92 0.88 0.84 0.81 0.82 0.81 0.77 0.74 0.70 0.67 0.64 0.65 0.62 0.64 0.61 0.56 0.60 0.61 0.59 0.56 0.55 0.55 0.48
0.99 0.98 1.00 1.00 0.97 0.97 0.97 0.99 1.00 0.98 0.96 0.95 0.98 0.96 0.97 0.98 0.97 0.97 0.98 0.96 0.93 0.92 0.90 0.88 0.88 0.86 0.83 0.79 0.75 0.72 0.70 0.67 0.68 0.65 0.60 0.60 0.61 0.62 0.61 0.61 0.59 0.53
1.00 1.00 1.01 0.99 0.97 0.98 0.99 1.00 1.01 1.02 1.00 0.99 1.01 1.00 0.97 1.01 1.01 0.97 0.96 0.97 0.95 0.95 0.95 0.94 0.91 0.90 0.88 0.86 0.82 0.78 0.76 0.75 0.75 0.71 0.67 0.64 0.66 0.66 0.63 0.65 0.64 0.61
0.97 1.01 0.99 0.98 0.97 0.96 0.97 1.03 1.05 1.08 1.06 1.03 1.02 1.02 1.04 1.07 1.06 1.02 0.97 0.95 0.95 0.94 0.96 0.96 0.95 0.94 0.91 0.88 0.87 0.87 0.85 0.84 0.84 0.83 0.79 0.76 0.76 0.75 0.71 0.70 0.70 0.65
1.07 1.08 1.04 1.01 1.01 1.02 1.00 1.00 1.04 1.10 1.09 1.07 1.04 1.02 1.03 1.12 1.10 1.06 1.06 1.04 1.01 1.00 0.98 0.98 0.99 0.98 0.97 0.94 0.91 0.90 0.89 0.88 0.89 0.89 0.88 0.86 0.84 0.81 0.74 0.71 0.72 0.71
0.99 1.00 1.00 1.00 1.02 1.03 1.03 1.04 1.05 1.06 1.13 1.12 1.09 1.02 1.00 1.02 1.07 1.11 1.15 1.14 1.15 1.13 1.08 1.05 1.02 1.02 1.01 0.99 0.96 0.93 0.90 0.89 0.89 0.89 0.89 0.88 0.87 0.85 0.81 0.75 0.72 0.70
0.86 0.85 0.90 0.95 0.98 0.99 1.02 1.05 1.03 1.07 1.10 1.13 1.12 1.02 1.01 1.04 1.04 1.01 1.03 1.03 1.01 1.01 1.03 1.09 1.11 1.05 1.06 1.04 1.00 0.96 0.93 0.90 0.89 0.89 0.88 0.88 0.87 0.85 0.83 0.79 0.75 0.73
0.52 0.59 0.65 0.67 0.67 0.74 0.81 0.83 0.88 0.92 0.95 0.99 0.99 0.99 1.01 1.02 1.05 1.04 0.99 0.95 0.96 0.96 0.97 1.02 1.08 1.09 1.07 1.05 1.03 1.00 0.96 0.92 0.89 0.87 0.87 0.87 0.87 0.86 0.83 0.80 0.77 0.74
0.44 0.44 0.44 0.48 0.52 0.57 0.66 0.75 0.76 0.78 0.80 0.79 0.77 0.80 0.84 0.88 0.91 0.95 0.95 0.93 0.94 0.95 0.95 0.97 0.95 0.96 1.02 1.05 1.03 0.99 0.96 0.95 0.94 0.91 0.88 0.84 0.83 0.82 0.81 0.79 0.77 0.73
0.46 0.46 0.48 0.48 0.49 0.50 0.49 0.49 0.55 0.69 0.74 0.71 0.72 0.74 0.78 0.78 0.77 0.76 0.76 0.78 0.82 0.85 0.89 0.94 0.95 0.95 0.93 0.96 0.96 0.94 0.93 0.92 0.89 0.86 0.85 0.83 0.82 0.80 0.78 0.77 0.75 0.72
0.49 0.48 0.46 0.45 0.46 0.47 0.48 0.51 0.52 0.51 0.52 0.60 0.71 0.69 0.70 0.74 0.72 0.68 0.69 0.71 0.73 0.76 0.77 0.79 0.85 0.84 0.84 0.85 0.87 0.88 0.87 0.86 0.84 0.81 0.79 0.79 0.78 0.78 0.76 0.75 0.73 0.71
0.46 0.46 0.47 0.48 0.49 0.48 0.48 0.49 0.50 0.51 0.52 0.50 0.52 0.61 0.68 0.69 0.69 0.68 0.68 0.69 0.69 0.68 0.69 0.73 0.74 0.76 0.78 0.79 0.79 0.78 0.78 0.80 0.80 0.79 0.76 0.74 0.72 0.71 0.70 0.69 0.68 0.68
0.43 0.44 0.46 0.47 0.47 0.47 0.47 0.46 0.45 0.44 0.45 0.48 0.49 0.47 0.52 0.58 0.63 0.65 0.65 0.64 0.62 0.60 0.61 0.65 0.69 0.70 0.72 0.75 0.73 0.70 0.70 0.71 0.73 0.73 0.73 0.71 0.68 0.67 0.66 0.65 0.63 0.62
0.42 0.43 0.45 0.46 0.46 0.46 0.45 0.43 0.41 0.41 0.40 0.41 0.43 0.46 0.48 0.48 0.47 0.52 0.58 0.60 0.61 0.62 0.62 0.65 0.72 0.74 0.71 0.68 0.67 0.69 0.72 0.73 0.70 0.68 0.68 0.67 0.65 0.64 0.63 0.63 0.61 0.60
0.41 0.43 0.45 0.46 0.46 0.46 0.46 0.45 0.47 0.47 0.47 0.48 0.48 0.48 0.45 0.43 0.44 0.47 0.50 0.53 0.57 0.59 0.61 0.62 0.66 0.69 0.66 0.66 0.68 0.69 0.70 0.69 0.67 0.64 0.63 0.63 0.63 0.62 0.60 0.59 0.58 0.56
0.40 0.40 0.41 0.42 0.43 0.43 0.43 0.43 0.42 0.43 0.44 0.45 0.44 0.46 0.47 0.48 0.49 0.48 0.51 0.53 0.53 0.55 0.59 0.61 0.64 0.65 0.65 0.67 0.68 0.69 0.68 0.65 0.65 0.64 0.61 0.59 0.58 0.58 0.58 0.57 0.56 0.54
0.42 0.42 0.41 0.42 0.42 0.41 0.41 0.43 0.44 0.45 0.45 0.47 0.45 0.46 0.48 0.50 0.51 0.53 0.53 0.55 0.56 0.58 0.59 0.58 0.59 0.61 0.63 0.65 0.66 0.67 0.67 0.65 0.64 0.61 0.58 0.57 0.57 0.57 0.57 0.55 0.53 0.51
0.41 0.41 0.42 0.42 0.42 0.42 0.43 0.43 0.43 0.44 0.44 0.46 0.46 0.46 0.46 0.49 0.49 0.50 0.54 0.56 0.58 0.59 0.57 0.57 0.58 0.60 0.61 0.62 0.63 0.66 0.66 0.65 0.62 0.56 0.52 0.50 0.48 0.47 0.47 0.46 0.46 0.46
0.42 0.42 0.43 0.43 0.44 0.47 0.49 0.50 0.51 0.50 0.50 0.49 0.49 0.50 0.50 0.50 0.56 0.54 0.53 0.53 0.54 0.56 0.57 0.57 0.57 0.56 0.57 0.59 0.61 0.62 0.62 0.60 0.55 0.48 0.44 0.44 0.46 0.46 0.45 0.45 0.45 0.46

ECMWFNIL_prec_pwat_033.txt.gz
Precipitable_Water
0.84 0.79 0.74 0.69 0.67 0.62 0.60 0.59 0.58 0.58 0.57 0.56 0.56 0.57 0.59 0.60 0.59 0.57 0.58 0.59 0.57 0.51 0.46 0.44 0.44 0.45 0.50 0.52 0.52 0.50 0.46 0.44 0.44 0.43 0.39 0.40 0.39 0.39 0.39 0.41 0.42 0.40
0.85 0.80 0.76 0.73 0.73 0.72 0.70 0.67 0.64 0.63 0.62 0.62 0.60 0.60 0.62 0.63 0.64 0.61 0.63 0.62 0.60 0.59 0.55 0.51 0.47 0.46 0.49 0.50 0.50 0.48 0.44 0.44 0.40 0.44 0.42 0.39 0.36 0.36 0.37 0.40 0.41 0.40
0.88 0.82 0.77 0.73 0.75 0.75 0.74 0.77 0.76 0.73 0.71 0.69 0.68 0.66 0.65 0.66 0.64 0.63 0.66 0.65 0.63 0.62 0.59 0.58 0.55 0.55 0.53 0.50 0.51 0.49 0.47 0.43 0.42 0.47 0.47 0.44 0.41 0.38 0.37 0.39 0.40 0.38
0.92 0.86 0.79 0.77 0.79 0.79 0.79 0.80 0.81 0.80 0.79 0.77 0.74 0.74 0.72 0.70 0.69 0.66 0.68 0.67 0.66 0.65 0.65 0.63 0.60 0.59 0.61 0.60 0.55 0.56 0.54 0.50 0.50 0.51 0.50 0.48 0.46 0.44 0.41 0.40 0.40 0.38
0.95 0.90 0.85 0.78 0.77 0.83 0.83 0.81 0.82 0.83 0.82 0.81 0.81 0.82 0.82 0.80 0.76 0.74 0.74 0.73 0.71 0.70 0.70 0.69 0.68 0.63 0.63 0.63 0.57 0.62 0.61 0.57 0.58 0.56 0.52 0.50 0.53 0.51 0.46 0.44 0.44 0.44
1.01 0.96 0.91 0.85 0.80 0.84 0.83 0.82 0.85 0.86 0.87 0.85 0.85 0.87 0.86 0.87 0.87 0.85 0.84 0.81 0.81 0.78 0.76 0.74 0.73 0.71 0.69 0.67 0.60 0.64 0.64 0.62 0.64 0.61 0.58 0.56 0.56 0.55 0.53 0.52 0.49 0.49
1.02 1.00 0.97 0.94 0.90 0.90 0.86 0.87 0.89 0.90 0.91 0.92 0.92 0.89 0.91 0.90 0.91 0.92 0.93 0.92 0.91 0.89 0.85 0.82 0.79 0.77 0.75 0.73 0.68 0.66 0.68 0.64 0.66 0.63 0.61 0.63 0.61 0.58 0.58 0.56 0.53 0.52
1.01 1.04 1.02 0.99 0.98 0.94 0.90 0.90 0.92 0.93 0.95 0.94 0.92 0.94 0.94 0.93 0.93 0.95 0.96 0.97 0.98 0.97 0.97 0.96 0.93 0.89 0.88 0.83 0.77 0.70 0.71 0.69 0.68 0.67 0.63 0.66 0.65 0.60 0.61 0.61 0.58 0.58
1.07 1.08 1.06 1.04 1.01 1.00 0.98 0.95 0.95 0.96 0.97 0.94 0.94 0.95 0.99 1.01 1.00 0.99 1.00 1.02 1.04 1.06 1.03 1.02 1.00 0.99 0.99 0.95 0.91 0.85 0.78 0.74 0.73 0.71 0.69 0.67 0.67 0.65 0.66 0.66 0.62 0.61
0.99 1.08 1.12 1.08 1.03 1.01 1.01 1.01 1.00 0.99 0.99 0.96 0.96 0.97 0.98 1.04 1.06 1.05 1.01 1.00 0.99 0.99 1.01 1.03 1.02 1.02 1.02 1.02 1.00 0.98 0.93 0.88 0.85 0.82 0.78 0.77 0.76 0.77 0.77 0.76 0.72 0.67
0.98 1.01 0.99 1.00 1.00 1.03 1.03 1.04 1.01 1.00 1.00 0.98 0.98 0.97 1.00 1.02 1.04 1.04 1.04 1.01 0.98 0.97 0.99 1.02 1.06 1.06 1.07 1.09 1.05 1.02 0.99 0.96 0.94 0.93 0.91 0.90 0.87 0.86 0.85 0.82 0.79 0.74
0.91 0.92 0.91 0.92 0.95 1.00 1.02 1.04 1.03 1.01 1.00 1.01 1.01 0.97 0.96 0.96 0.99 1.01 1.01 1.01 1.00 0.99 1.01 1.04 1.08 1.09 1.07 1.03 1.00 1.00 0.98 0.97 0.95 0.94 0.93 0.93 0.93 0.90 0.89 0.89 0.85 0.81
0.98 0.99 1.02 1.02 1.01 1.00 1.00 1.00 0.98 0.97 0.97 0.96 0.99 1.00 0.99 0.99 1.01 1.01 1.02 1.00 1.01 1.01 1.02 1.01 1.04 1.07 1.07 1.02 0.98 0.99 0.98 0.98 0.99 0.98 0.96 0.94 0.93 0.92 0.90 0.88 0.86 0.84
0.87 0.88 0.95 0.98 0.99 1.01 1.00 0.98 0.97 0.97 0.97 0.99 1.00 0.99 0.98 0.97 0.97 1.01 1.03 1.01 0.99 0.99 1.01 1.01 0.98 0.96 0.95 0.97 0.98 0.92 0.97 0.98 0.96 0.93 0.92 0.92 0.92 0.91 0.90 0.88 0.88 0.86
0.61 0.62 0.61 0.59 0.65 0.71 0.76 0.80 0.81 0.83 0.87 0.89 0.91 0.92 0.94 0.96 0.97 0.98 0.98 0.98 0.99 0.98 0.98 1.00 0.97 0.94 0.94 0.95 0.98 0.97 0.93 0.90 0.91 0.91 0.91 0.90 0.91 0.90 0.89 0.88 0.86 0.85
0.47 0.53 0.52 0.54 0.56 0.59 0.62 0.63 0.64 0.65 0.66 0.67 0.69 0.72 0.76 0.80 0.83 0.86 0.87 0.89 0.90 0.93 0.95 0.95 0.94 0.95 0.96 0.97 0.99 1.00 0.98 0.94 0.92 0.91 0.89 0.87 0.87 0.87 0.86 0.85 0.84 0.83
0.46 0.47 0.49 0.49 0.50 0.53 0.55 0.54 0.55 0.58 0.60 0.60 0.60 0.64 0.67 0.71 0.74 0.74 0.75 0.75 0.76 0.79 0.81 0.83 0.85 0.88 0.89 0.92 0.95 0.97 0.95 0.93 0.92 0.92 0.91 0.89 0.86 0.84 0.83 0.81 0.77 0.75
0.46 0.45 0.45 0.46 0.47 0.48 0.50 0.52 0.55 0.59 0.60 0.61 0.62 0.64 0.68 0.72 0.71 0.69 0.69 0.70 0.72 0.73 0.74 0.76 0.79 0.80 0.81 0.84 0.86 0.88 0.89 0.88 0.88 0.88 0.89 0.91 0.89 0.85 0.82 0.79 0.76 0.74
0.42 0.41 0.42 0.42 0.43 0.44 0.45 0.46 0.46 0.47 0.49 0.51 0.54 0.59 0.62 0.64 0.66 0.68 0.66 0.67 0.66 0.64 0.63 0.66 0.69 0.72 0.74 0.76 0.76 0.78 0.81 0.83 0.84 0.85 0.85 0.86 0.87 0.83 0.79 0.78 0.76 0.72
0.38 0.37 0.37 0.40 0.41 0.41 0.40 0.40 0.38 0.39 0.40 0.41 0.42 0.44 0.47 0.52 0.59 0.62 0.65 0.65 0.63 0.61 0.60 0.62 0.65 0.70 0.71 0.70 0.68 0.70 0.74 0.77 0.76 0.78 0.81 0.81 0.79 0.78 0.77 0.73 0.71 0.71
0.41 0.41 0.42 0.43 0.43 0.43 0.42 0.39 0.37 0.35 0.34 0.35 0.34 0.34 0.35 0.36 0.40 0.42 0.46 0.52 0.57 0.61 0.63 0.65 0.67 0.67 0.64 0.63 0.66 0.71 0.72 0.73 0.73 0.73 0.73 0.76 0.78 0.80 0.80 0.76 0.72 0.68
0.42 0.43 0.45 0.47 0.47 0.46 0.44 0.42 0.41 0.40 0.40 0.43 0.43 0.44 0.45 0.43 0.41 0.38 0.39 0.43 0.48 0.53 0.57 0.60 0.63 0.62 0.62 0.63 0.66 0.68 0.68 0.67 0.66 0.65 0.66 0.68 0.69 0.70 0.69 0.65 0.62 0.61
0.43 0.42 0.42 0.42 0.43 0.42 0.42 0.42 0.41 0.42 0.42 0.43 0.41 0.41 0.40 0.40 0.41 0.44 0.48 0.45 0.44 0.46 0.48 0.51 0.54 0.58 0.60 0.62 0.64 0.65 0.64 0.64 0.63 0.66 0.67 0.66 0.65 0.64 0.66 0.69 0.70 0.67
0.44 0.43 0.43 0.43 0.43 0.42 0.43 0.44 0.45 0.46 0.45 0.48 0.45 0.44 0.44 0.46 0.49 0.50 0.50 0.49 0.49 0.48 0.50 0.51 0.53 0.58 0.61 0.63 0.64 0.65 0.66 0.65 0.64 0.63 0.63 0.64 0.67 0.70 0.69 0.67 0.65 0.65
0.44 0.43 0.41 0.40 0.39 0.39 0.40 0.40 0.41 0.42 0.44 0.45 0.45 0.45 0.46 0.48 0.48 0.47 0.47 0.48 0.48 0.48 0.52 0.53 0.54 0.58 0.61 0.62 0.63 0.64 0.65 0.64 0.62 0.62 0.59 0.60 0.62 0.62 0.63 0.61 0.60 0.58
0.47 0.45 0.44 0.42 0.43 0.44 0.46 0.46 0.47 0.48 0.49 0.50 0.50 0.50 0.50 0.50 0.49 0.50 0.50 0.51 0.54 0.54 0.54 0.54 0.55 0.57 0.60 0.62 0.62 0.63 0.63 0.62 0.60 0.57 0.55 0.55 0.56 0.57 0.57 0.55 0.51 0.47

ECMWFNIL_prec_pwat_036.txt.gz
Precipitable_Water
0.91 0.88 0.83 0.74 0.65 0.64 0.62 0.63 0.63 0.59 0.56 0.54 0.50 0.49 0.48 0.49 0.52 0.52 0.52 0.51 0.47 0.44 0.44 0.45 0.47 0.48 0.49 0.49 0.49 0.46 0.43 0.43 0.41 0.41 0.41 0.43 0.43 0.43 0.42 0.42 0.41 0.40
0.93 0.93 0.90 0.83 0.75 0.71 0.67 0.66 0.65 0.64 0.62 0.63 0.61 0.58 0.56 0.55 0.55 0.56 0.55 0.55 0.54 0.51 0.48 0.47 0.48 0.49 0.50 0.49 0.48 0.45 0.41 0.41 0.40 0.43 0.37 0.37 0.39 0.41 0.40 0.40 0.37 0.36
0.95 0.94 0.92 0.85 0.81 0.78 0.71 0.70 0.71 0.71 0.69 0.68 0.70 0.69 0.67 0.66 0.62 0.63 0.62 0.60 0.57 0.56 0.53 0.51 0.53 0.55 0.54 0.52 0.51 0.48 0.44 0.42 0.43 0.45 0.43 0.39 0.40 0.40 0.41 0.40 0.37 0.36
0.93 0.92 0.93 0.93 0.88 0.85 0.81 0.77 0.77 0.78 0.78 0.75 0.74 0.74 0.74 0.73 0.71 0.69 0.68 0.67 0.64 0.63 0.61 0.57 0.55 0.57 0.58 0.57 0.56 0.53 0.52 0.49 0.49 0.51 0.49 0.47 0.45 0.44 0.43 0.43 0.40 0.39
0.93 0.93 0.94 0.96 0.96 0.93 0.89 0.85 0.83 0.83 0.83 0.84 0.84 0.84 0.82 0.79 0.77 0.77 0.75 0.73 0.71 0.69 0.67 0.66 0.63 0.62 0.62 0.61 0.57 0.58 0.58 0.56 0.56 0.54 0.52 0.50 0.51 0.50 0.46 0.47 0.45 0.44
0.93 0.94 0.97 0.99 1.01 0.97 0.91 0.90 0.90 0.88 0.88 0.87 0.86 0.90 0.92 0.92 0.90 0.88 0.87 0.83 0.80 0.78 0.75 0.72 0.69 0.67 0.67 0.65 0.61 0.60 0.62 0.60 0.62 0.61 0.56 0.54 0.55 0.55 0.54 0.52 0.52 0.50
0.89 0.92 0.97 0.99 0.99 1.03 0.96 0.93 0.95 0.94 0.93 0.93 0.94 0.92 0.94 0.93 0.93 0.94 0.94 0.93 0.91 0.90 0.86 0.83 0.79 0.76 0.75 0.72 0.68 0.63 0.64 0.64 0.63 0.63 0.61 0.59 0.60 0.59 0.58 0.56 0.54 0.53
0.89 0.91 0.92 0.92 0.92 1.02 0.97 0.96 0.98 0.99 0.99 0.98 0.96 0.96 0.97 0.96 0.97 0.98 0.98 0.97 0.95 0.95 0.94 0.95 0.93 0.90 0.86 0.82 0.77 0.74 0.69 0.68 0.65 0.63 0.61 0.61 0.62 0.61 0.62 0.61 0.58 0.56
0.96 0.94 0.94 0.95 0.97 1.00 1.00 1.02 1.03 1.04 1.07 1.01 1.00 1.00 1.02 1.00 0.99 1.00 1.01 1.02 1.01 0.99 0.97 0.97 0.96 0.94 0.94 0.92 0.88 0.85 0.82 0.78 0.75 0.71 0.67 0.64 0.62 0.63 0.64 0.67 0.66 0.64
0.93 0.95 0.93 0.96 0.97 1.01 1.03 1.04 1.06 1.04 1.08 1.06 1.04 1.04 1.03 1.03 1.02 1.01 1.01 1.01 1.01 1.01 1.00 0.99 0.96 0.95 0.95 0.94 0.94 0.93 0.92 0.90 0.89 0.85 0.81 0.78 0.75 0.74 0.74 0.75 0.74 0.73
0.95 0.95 0.96 0.99 0.98 0.98 0.99 1.01 1.02 1.02 1.06 1.05 1.05 1.04 1.06 1.05 1.05 1.05 1.04 1.03 1.00 1.00 1.01 1.00 0.99 0.97 0.97 0.98 0.97 0.97 0.96 0.94 0.93 0.93 0.92 0.91 0.91 0.90 0.89 0.87 0.85 0.82
0.95 0.95 0.94 0.96 0.96 0.97 0.97 0.98 0.98 0.97 1.00 1.10 1.09 1.03 1.03 1.04 1.03 1.04 1.04 1.03 1.02 1.02 1.03 1.04 1.02 0.99 0.98 0.99 0.99 0.99 0.99 0.95 0.94 0.93 0.93 0.93 0.93 0.93 0.92 0.91 0.90 0.89
0.88 0.91 0.93 0.96 0.98 0.98 1.00 0.99 0.97 0.98 1.00 1.00 1.06 1.05 1.00 1.00 1.01 1.00 1.02 1.02 1.02 1.02 1.03 1.04 1.02 1.00 0.98 0.98 0.98 0.99 0.98 0.95 0.93 0.93 0.93 0.94 0.93 0.92 0.92 0.92 0.91 0.90
0.92 0.95 0.96 0.96 0.97 0.98 1.01 1.04 1.03 1.01 1.00 1.03 1.08 1.02 1.01 1.00 1.00 1.01 1.02 1.01 1.00 0.99 0.99 0.99 1.00 1.00 1.00 0.97 0.91 0.86 0.84 0.91 0.94 0.92 0.93 0.94 0.94 0.93 0.92 0.91 0.91 0.90
0.75 0.82 0.88 0.92 0.89 0.88 0.91 0.96 1.00 1.00 1.00 1.00 1.01 1.00 1.01 1.00 1.01 1.00 0.97 0.96 0.97 0.98 0.98 0.98 0.96 0.95 0.97 0.96 0.93 0.89 0.86 0.84 0.86 0.89 0.92 0.92 0.93 0.93 0.93 0.91 0.90 0.88
0.60 0.61 0.60 0.63 0.66 0.69 0.72 0.75 0.76 0.78 0.80 0.82 0.82 0.83 0.84 0.85 0.85 0.86 0.86 0.88 0.90 0.93 0.95 0.96 0.96 0.97 0.97 0.97 0.97 0.95 0.93 0.92 0.91 0.90 0.89 0.87 0.85 0.84 0.86 0.89 0.90 0.90
0.54 0.55 0.56 0.56 0.57 0.60 0.61 0.62 0.63 0.65 0.66 0.68 0.70 0.72 0.74 0.78 0.78 0.76 0.76 0.78 0.79 0.80 0.79 0.82 0.87 0.90 0.93 0.96 0.98 0.98 0.96 0.93 0.91 0.92 0.92 0.89 0.87 0.85 0.83 0.83 0.83 0.84
0.45 0.47 0.47 0.48 0.49 0.50 0.52 0.54 0.55 0.56 0.57 0.58 0.59 0.59 0.62 0.66 0.68 0.69 0.71 0.74 0.75 0.76 0.75 0.74 0.75 0.79 0.83 0.88 0.91 0.92 0.93 0.92 0.92 0.91 0.91 0.89 0.88 0.87 0.84 0.82 0.81 0.82
0.44 0.44 0.44 0.46 0.47 0.48 0.49 0.49 0.48 0.48 0.48 0.48 0.48 0.51 0.54 0.55 0.57 0.59 0.61 0.66 0.68 0.70 0.71 0.73 0.71 0.70 0.71 0.75 0.77 0.81 0.85 0.87 0.88 0.89 0.89 0.88 0.85 0.83 0.84 0.86 0.85 0.83
0.43 0.41 0.41 0.43 0.44 0.44 0.44 0.43 0.42 0.42 0.43 0.43 0.43 0.44 0.43 0.43 0.45 0.47 0.51 0.54 0.56 0.58 0.59 0.62 0.64 0.68 0.68 0.66 0.66 0.69 0.75 0.78 0.77 0.75 0.76 0.78 0.80 0.84 0.85 0.84 0.82 0.80
0.42 0.41 0.42 0.44 0.45 0.45 0.44 0.42 0.40 0.38 0.35 0.35 0.36 0.36 0.37 0.37 0.38 0.38 0.40 0.42 0.45 0.47 0.48 0.51 0.55 0.60 0.65 0.66 0.65 0.65 0.67 0.70 0.72 0.72 0.70 0.68 0.70 0.72 0.73 0.72 0.72 0.72
0.46 0.46 0.48 0.50 0.51 0.50 0.47 0.44 0.41 0.38 0.35 0.36 0.36 0.37 0.39 0.40 0.41 0.41 0.40 0.39 0.40 0.41 0.41 0.42 0.46 0.51 0.55 0.60 0.63 0.65 0.65 0.65 0.67 0.67 0.66 0.66 0.66 0.68 0.68 0.68 0.69 0.71
0.48 0.47 0.47 0.48 0.50 0.49 0.48 0.47 0.45 0.43 0.42 0.44 0.40 0.40 0.38 0.39 0.39 0.40 0.41 0.40 0.41 0.41 0.40 0.41 0.44 0.48 0.50 0.54 0.57 0.61 0.61 0.60 0.59 0.59 0.60 0.60 0.61 0.62 0.63 0.64 0.66 0.68
0.51 0.49 0.48 0.47 0.47 0.46 0.46 0.47 0.48 0.49 0.48 0.49 0.46 0.45 0.44 0.45 0.45 0.43 0.43 0.43 0.42 0.43 0.43 0.42 0.43 0.47 0.51 0.55 0.59 0.62 0.63 0.61 0.60 0.59 0.59 0.60 0.60 0.62 0.64 0.67 0.69 0.70
0.51 0.50 0.48 0.46 0.46 0.47 0.48 0.47 0.47 0.46 0.46 0.48 0.46 0.46 0.46 0.47 0.45 0.43 0.44 0.45 0.45 0.45 0.45 0.45 0.45 0.48 0.51 0.54 0.58 0.61 0.63 0.63 0.61 0.59 0.58 0.57 0.58 0.59 0.61 0.62 0.63 0.64
0.48 0.46 0.46 0.46 0.46 0.46 0.47 0.48 0.50 0.50 0.50 0.51 0.53 0.53 0.51 0.50 0.48 0.46 0.45 0.45 0.48 0.48 0.49 0.50 0.50 0.51 0.52 0.55 0.57 0.59 0.61 0.61 0.61 0.58 0.56 0.56 0.55 0.54 0.53 0.55 0.58 0.59

ECMWFNIL_prec_pwat_042.txt.gz
Precipitable_Water
0.91 0.90 0.86 0.79 0.71 0.69 0.69 0.67 0.65 0.63 0.61 0.58 0.53 0.51 0.53 0.55 0.57 0.54 0.53 0.52 0.52 0.52 0.52 0.52 0.50 0.48 0.46 0.42 0.40 0.40 0.40 0.40 0.41 0.42 0.41 0.42 0.41 0.41 0.40 0.40 0.40 0.40
0.89 0.89 0.88 0.83 0.75 0.73 0.73 0.72 0.67 0.66 0.65 0.62 0.60 0.59 0.59 0.60 0.60 0.60 0.57 0.55 0.54 0.54 0.55 0.55 0.55 0.55 0.52 0.47 0.42 0.37 0.37 0.37 0.37 0.41 0.37 0.37 0.37 0.37 0.35 0.34 0.34 0.36
0.85 0.85 0.84 0.77 0.71 0.71 0.74 0.75 0.72 0.69 0.68 0.66 0.64 0.63 0.63 0.65 0.63 0.63 0.61 0.60 0.58 0.58 0.58 0.58 0.59 0.59 0.58 0.54 0.51 0.47 0.42 0.39 0.37 0.39 0.36 0.35 0.36 0.35 0.34 0.33 0.32 0.32
0.86 0.85 0.80 0.74 0.71 0.71 0.75 0.75 0.72 0.70 0.69 0.67 0.63 0.65 0.66 0.66 0.64 0.62 0.62 0.64 0.62 0.62 0.63 0.63 0.63 0.64 0.63 0.59 0.57 0.54 0.53 0.51 0.50 0.48 0.43 0.41 0.39 0.38 0.37 0.37 0.36 0.36
0.87 0.84 0.78 0.75 0.75 0.76 0.77 0.74 0.71 0.69 0.68 0.69 0.69 0.67 0.67 0.67 0.65 0.63 0.64 0.66 0.67 0.67 0.67 0.65 0.65 0.67 0.68 0.65 0.62 0.59 0.58 0.57 0.57 0.55 0.52 0.49 0.49 0.47 0.46 0.45 0.43 0.41
0.88 0.84 0.76 0.76 0.78 0.83 0.83 0.76 0.71 0.71 0.72 0.74 0.73 0.74 0.74 0.75 0.73 0.70 0.71 0.71 0.74 0.75 0.75 0.74 0.73 0.73 0.73 0.71 0.68 0.65 0.64 0.61 0.61 0.60 0.56 0.53 0.53 0.54 0.53 0.52 0.48 0.45
0.88 0.85 0.77 0.78 0.80 0.85 0.87 0.82 0.74 0.72 0.74 0.78 0.82 0.82 0.84 0.83 0.83 0.82 0.82 0.83 0.84 0.87 0.87 0.90 0.88 0.84 0.84 0.82 0.78 0.73 0.70 0.68 0.66 0.64 0.60 0.59 0.57 0.54 0.56 0.55 0.53 0.49
0.91 0.88 0.79 0.77 0.79 0.83 0.87 0.88 0.84 0.82 0.82 0.81 0.81 0.89 0.89 0.88 0.90 0.92 0.94 0.95 0.96 0.98 1.00 0.99 1.00 0.99 0.98 0.96 0.92 0.91 0.88 0.85 0.79 0.72 0.67 0.64 0.63 0.61 0.59 0.59 0.57 0.53
0.96 0.90 0.81 0.77 0.79 0.83 0.88 0.92 0.92 0.92 0.90 0.87 0.85 0.91 0.95 0.94 0.94 0.94 0.95 0.98 1.00 1.02 1.03 1.02 1.01 1.03 1.05 1.03 1.01 1.00 0.97 0.94 0.91 0.88 0.83 0.77 0.72 0.68 0.67 0.67 0.63 0.60
0.99 0.94 0.84 0.78 0.79 0.85 0.90 0.93 0.95 0.97 0.95 0.92 0.92 0.96 0.98 0.99 1.01 0.99 0.98 0.99 1.01 1.03 1.05 1.05 1.04 1.04 1.04 1.03 1.03 1.01 0.98 0.97 0.97 0.97 0.95 0.94 0.90 0.87 0.83 0.77 0.72 0.71
0.96 0.94 0.85 0.79 0.81 0.86 0.91 0.95 0.97 0.98 0.95 0.92 0.93 0.96 1.04 1.08 1.08 1.08 1.04 1.02 1.02 1.02 1.02 1.02 1.03 1.04 1.03 1.03 1.04 1.04 1.03 1.02 1.00 0.99 0.98 0.98 0.97 0.97 0.95 0.91 0.85 0.82
0.94 0.92 0.86 0.78 0.80 0.87 0.91 0.92 0.93 0.92 0.90 0.91 0.94 0.96 0.99 1.00 1.00 1.05 1.02 1.03 1.04 1.06 1.06 1.06 1.06 1.06 1.06 1.04 1.04 1.04 1.03 1.04 1.02 1.01 0.99 0.99 0.99 0.98 0.98 0.97 0.93 0.91
0.89 0.87 0.85 0.82 0.83 0.88 0.91 0.91 0.93 0.94 0.94 0.93 0.93 0.94 0.97 0.97 0.97 0.98 1.05 1.04 1.05 1.06 1.03 1.02 1.02 1.02 1.01 1.01 1.00 1.00 0.97 0.96 0.99 1.00 1.00 0.99 0.99 0.99 0.98 0.97 0.97 0.96
0.89 0.88 0.86 0.87 0.87 0.90 0.92 0.93 0.96 0.98 0.97 0.98 0.98 0.96 0.98 1.00 0.99 1.01 1.03 1.03 1.02 1.03 1.05 1.05 1.03 1.01 1.00 1.00 1.01 1.01 1.00 0.99 1.00 1.00 1.00 0.98 0.94 0.93 0.92 0.92 0.93 0.95
0.91 0.90 0.90 0.91 0.90 0.91 0.93 0.92 0.91 0.92 0.93 0.96 0.99 1.00 0.99 0.99 1.01 1.02 1.00 0.99 0.99 1.01 1.02 1.02 0.99 0.97 0.97 0.99 0.99 1.00 1.01 0.98 0.98 1.00 0.99 0.98 0.93 0.91 0.91 0.91 0.93 0.97
0.90 0.89 0.88 0.89 0.88 0.88 0.90 0.91 0.92 0.93 0.94 0.93 0.92 0.94 0.96 0.96 0.96 0.98 0.98 0.97 0.94 0.94 0.94 0.94 0.94 0.96 0.97 0.98 0.98 0.98 0.98 0.98 0.98 0.98 0.97 0.95 0.92 0.90 0.89 0.91 0.95 0.98
0.89 0.89 0.87 0.85 0.86 0.86 0.88 0.90 0.91 0.91 0.89 0.87 0.86 0.87 0.89 0.90 0.90 0.90 0.90 0.90 0.88 0.87 0.87 0.87 0.87 0.88 0.87 0.85 0.84 0.86 0.90 0.92 0.93 0.93 0.95 0.96 0.96 0.94 0.94 0.95 0.94 0.97
0.82 0.81 0.80 0.79 0.79 0.79 0.80 0.81 0.83 0.82 0.76 0.74 0.74 0.73 0.75 0.76 0.76 0.77 0.80 0.81 0.81 0.81 0.79 0.78 0.77 0.77 0.76 0.75 0.76 0.77 0.77 0.77 0.78 0.79 0.82 0.84 0.87 0.89 0.91 0.91 0.92 0.94
0.59 0.59 0.60 0.62 0.65 0.66 0.68 0.69 0.68 0.64 0.60 0.59 0.59 0.62 0.64 0.63 0.63 0.64 0.64 0.66 0.65 0.63 0.62 0.64 0.65 0.66 0.64 0.64 0.65 0.68 0.72 0.74 0.74 0.75 0.74 0.74 0.74 0.75 0.76 0.77 0.78 0.79
0.52 0.52 0.52 0.52 0.53 0.54 0.55 0.55 0.54 0.53 0.54 0.56 0.57 0.58 0.57 0.57 0.58 0.57 0.57 0.57 0.57 0.57 0.56 0.56 0.55 0.56 0.54 0.54 0.54 0.55 0.57 0.62 0.66 0.68 0.69 0.69 0.69 0.70 0.69 0.68 0.68 0.67
0.51 0.51 0.50 0.51 0.51 0.52 0.52 0.52 0.51 0.51 0.51 0.51 0.51 0.51 0.51 0.50 0.50 0.48 0.47 0.47 0.46 0.45 0.43 0.42 0.43 0.44 0.44 0.44 0.44 0.46 0.48 0.50 0.52 0.56 0.58 0.60 0.62 0.63 0.63 0.63 0.63 0.62
0.52 0.51 0.52 0.53 0.53 0.53 0.53 0.52 0.51 0.51 0.49 0.50 0.50 0.49 0.48 0.47 0.47 0.46 0.45 0.45 0.45 0.45 0.44 0.42 0.44 0.45 0.46 0.46 0.46 0.46 0.45 0.46 0.49 0.51 0.52 0.54 0.54 0.57 0.58 0.59 0.59 0.57
0.54 0.53 0.52 0.53 0.53 0.53 0.53 0.53 0.53 0.53 0.53 0.54 0.51 0.51 0.49 0.48 0.47 0.47 0.48 0.47 0.46 0.46 0.45 0.44 0.44 0.46 0.47 0.48 0.49 0.48 0.48 0.48 0.49 0.50 0.51 0.52 0.54 0.56 0.58 0.59 0.59 0.58
0.56 0.53 0.52 0.52 0.52 0.52 0.53 0.54 0.55 0.55 0.55 0.57 0.54 0.52 0.51 0.51 0.51 0.50 0.50 0.50 0.48 0.48 0.48 0.46 0.46 0.47 0.48 0.48 0.49 0.49 0.49 0.48 0.49 0.49 0.50 0.51 0.53 0.55 0.57 0.58 0.59 0.58
0.57 0.56 0.54 0.52 0.51 0.50 0.51 0.50 0.51 0.52 0.53 0.54 0.53 0.52 0.52 0.54 0.54 0.52 0.52 0.52 0.52 0.52 0.52 0.50 0.50 0.50 0.51 0.50 0.50 0.50 0.49 0.49 0.49 0.49 0.48 0.49 0.51 0.52 0.54 0.55 0.55 0.55
0.59 0.57 0.56 0.54 0.52 0.53 0.54 0.53 0.54 0.53 0.53 0.52 0.52 0.51 0.50 0.51 0.50 0.50 0.50 0.51 0.52 0.51 0.51 0.52 0.50 0.50 0.51 0.51 0.51 0.50 0.49 0.48 0.47 0.45 0.45 0.47 0.49 0.51 0.51 0.52 0.52 0.52

ECMWFNIL_prec_pwat_045.txt.gz
Precipitable_Water
0.89 0.87 0.82 0.81 0.76 0.73 0.73 0.72 0.72 0.69 0.65 0.63 0.61 0.61 0.63 0.63 0.64 0.62 0.60 0.59 0.58 0.57 0.55 0.54 0.53 0.49 0.47 0.46 0.47 0.46 0.45 0.44 0.44 0.45 0.44 0.43 0.42 0.41 0.38 0.40 0.41 0.41
0.89 0.87 0.84 0.82 0.77 0.75 0.75 0.75 0.72 0.70 0.67 0.65 0.63 0.64 0.65 0.65 0.65 0.66 0.63 0.62 0.61 0.60 0.59 0.59 0.60 0.57 0.53 0.49 0.48 0.47 0.46 0.46 0.43 0.45 0.42 0.40 0.38 0.37 0.35 0.36 0.36 0.38
0.90 0.86 0.82 0.77 0.73 0.72 0.72 0.72 0.72 0.74 0.70 0.67 0.67 0.67 0.67 0.68 0.66 0.67 0.67 0.65 0.64 0.63 0.63 0.63 0.64 0.64 0.61 0.57 0.55 0.52 0.51 0.49 0.47 0.48 0.47 0.44 0.42 0.37 0.37 0.37 0.36 0.36
0.90 0.87 0.84 0.82 0.76 0.72 0.73 0.71 0.73 0.76 0.72 0.67 0.66 0.67 0.69 0.68 0.68 0.68 0.69 0.69 0.69 0.68 0.68 0.68 0.67 0.68 0.66 0.63 0.62 0.59 0.57 0.56 0.56 0.56 0.53 0.52 0.51 0.50 0.48 0.49 0.46 0.45
0.91 0.89 0.86 0.84 0.81 0.72 0.70 0.69 0.70 0.72 0.70 0.68 0.68 0.69 0.69 0.68 0.68 0.69 0.71 0.72 0.72 0.72 0.73 0.72 0.72 0.72 0.72 0.70 0.67 0.65 0.64 0.62 0.61 0.60 0.58 0.56 0.56 0.56 0.56 0.55 0.52 0.50
0.91 0.90 0.87 0.85 0.82 0.73 0.70 0.70 0.73 0.74 0.74 0.70 0.70 0.72 0.72 0.74 0.72 0.72 0.74 0.76 0.78 0.79 0.80 0.79 0.78 0.78 0.77 0.75 0.73 0.72 0.70 0.70 0.70 0.66 0.62 0.60 0.59 0.59 0.59 0.57 0.55 0.54
0.86 0.87 0.86 0.86 0.81 0.75 0.72 0.72 0.72 0.75 0.76 0.76 0.74 0.72 0.77 0.77 0.79 0.77 0.79 0.82 0.83 0.84 0.85 0.87 0.89 0.88 0.88 0.85 0.82 0.80 0.80 0.76 0.75 0.73 0.69 0.67 0.65 0.63 0.61 0.61 0.58 0.55
0.89 0.90 0.89 0.86 0.80 0.76 0.77 0.82 0.78 0.73 0.74 0.76 0.75 0.77 0.81 0.81 0.84 0.86 0.87 0.88 0.89 0.90 0.92 0.96 0.98 0.99 0.99 0.98 0.96 0.94 0.93 0.93 0.88 0.83 0.79 0.74 0.72 0.68 0.67 0.66 0.64 0.60
0.95 0.92 0.89 0.86 0.80 0.78 0.81 0.85 0.83 0.78 0.78 0.77 0.77 0.78 0.83 0.87 0.89 0.93 0.91 0.90 0.91 0.94 0.95 0.98 1.00 1.01 1.03 1.03 1.02 1.01 1.00 1.00 0.99 0.95 0.90 0.87 0.84 0.81 0.77 0.75 0.70 0.67
0.91 0.91 0.90 0.88 0.82 0.78 0.82 0.87 0.88 0.86 0.85 0.83 0.82 0.80 0.80 0.88 0.93 0.95 0.95 0.93 0.93 0.95 0.98 0.99 1.01 1.04 1.05 1.04 1.02 1.01 1.00 1.01 1.03 1.01 0.99 0.96 0.96 0.98 0.96 0.91 0.85 0.80
0.94 0.93 0.92 0.91 0.88 0.81 0.81 0.88 0.91 0.92 0.91 0.91 0.91 0.88 0.87 0.90 0.94 0.97 0.96 0.96 0.94 0.94 0.96 0.99 1.03 1.05 1.03 1.02 1.03 1.03 1.03 1.02 1.02 1.02 1.02 1.01 1.01 1.00 0.99 0.98 0.97 0.94
0.96 0.96 0.97 0.95 0.95 0.89 0.83 0.86 0.91 0.91 0.90 0.90 0.90 0.87 0.89 0.93 0.94 0.94 0.94 0.93 0.92 0.92 0.96 0.99 1.02 1.04 1.02 1.01 1.02 1.05 1.06 1.05 1.02 1.01 1.01 0.99 0.99 1.00 1.00 0.99 0.97 0.96
0.95 0.96 0.97 0.93 0.94 0.94 0.92 0.89 0.91 0.93 0.92 0.91 0.93 0.90 0.87 0.85 0.88 0.89 0.93 0.93 0.95 0.97 0.98 1.00 1.01 1.02 1.01 1.01 1.03 1.03 1.02 1.00 0.99 0.98 0.96 0.96 0.98 1.00 1.01 1.01 1.00 0.98
0.93 0.96 0.98 0.98 0.98 0.97 0.95 0.92 0.90 0.91 0.92 0.94 0.95 0.93 0.92 0.90 0.89 0.88 0.91 0.95 0.96 0.96 0.99 1.02 1.00 1.00 1.02 1.05 1.06 1.03 1.01 1.01 1.00 0.98 0.97 0.99 1.01 1.01 1.01 0.99 0.96 0.94
0.92 0.94 0.96 0.96 0.97 0.95 0.94 0.92 0.90 0.91 0.94 0.95 0.96 0.95 0.95 0.94 0.93 0.94 0.93 0.95 0.97 0.99 1.01 1.04 1.03 1.02 1.02 1.03 1.03 1.03 1.02 1.00 1.01 1.00 0.99 0.98 0.99 1.01 1.01 1.02 0.99 0.94
0.92 0.93 0.93 0.94 0.92 0.91 0.92 0.91 0.91 0.92 0.93 0.92 0.92 0.91 0.90 0.91 0.94 0.96 0.97 0.96 0.95 0.97 0.98 0.99 0.99 1.01 1.02 1.01 1.01 0.99 0.98 0.96 0.95 0.96 0.97 0.98 0.97 0.97 0.98 1.00 1.01 1.02
0.91 0.90 0.91 0.91 0.92 0.92 0.92 0.91 0.90 0.91 0.91 0.91 0.91 0.91 0.92 0.94 0.93 0.91 0.93 0.96 0.96 0.95 0.95 0.95 0.95 0.96 0.93 0.91 0.90 0.87 0.85 0.83 0.81 0.80 0.82 0.83 0.84 0.85 0.87 0.91 0.94 0.95
0.90 0.89 0.88 0.89 0.90 0.90 0.91 0.91 0.91 0.91 0.92 0.92 0.92 0.93 0.93 0.90 0.85 0.85 0.87 0.89 0.90 0.89 0.87 0.85 0.83 0.80 0.78 0.76 0.75 0.75 0.74 0.74 0.73 0.71 0.71 0.73 0.73 0.73 0.75 0.76 0.75 0.73
0.86 0.86 0.84 0.83 0.84 0.86 0.88 0.89 0.89 0.88 0.88 0.88 0.87 0.87 0.83 0.77 0.75 0.75 0.75 0.75 0.74 0.71 0.69 0.69 0.68 0.67 0.65 0.63 0.61 0.60 0.60 0.61 0.63 0.66 0.67 0.67 0.67 0.67 0.66 0.66 0.67 0.66
0.63 0.64 0.64 0.66 0.70 0.73 0.76 0.77 0.78 0.77 0.78 0.78 0.76 0.73 0.67 0.64 0.63 0.62 0.62 0.62 0.61 0.60 0.59 0.60 0.59 0.58 0.56 0.55 0.53 0.52 0.52 0.53 0.55 0.56 0.59 0.62 0.64 0.64 0.64 0.64 0.65 0.64
0.54 0.54 0.54 0.57 0.59 0.61 0.61 0.60 0.60 0.60 0.61 0.63 0.63 0.61 0.59 0.57 0.56 0.55 0.54 0.53 0.52 0.51 0.49 0.48 0.47 0.45 0.45 0.45 0.46 0.46 0.47 0.47 0.49 0.51 0.52 0.55 0.58 0.60 0.62 0.63 0.64 0.65
0.57 0.56 0.56 0.56 0.56 0.55 0.54 0.54 0.54 0.54 0.54 0.56 0.55 0.55 0.55 0.54 0.53 0.52 0.50 0.48 0.48 0.47 0.47 0.45 0.47 0.47 0.48 0.48 0.48 0.48 0.48 0.48 0.49 0.49 0.49 0.51 0.53 0.56 0.58 0.60 0.62 0.63
0.61 0.60 0.59 0.59 0.59 0.58 0.57 0.56 0.55 0.55 0.55 0.56 0.54 0.54 0.53 0.52 0.51 0.50 0.50 0.50 0.49 0.50 0.49 0.48 0.50 0.51 0.50 0.50 0.49 0.49 0.49 0.49 0.48 0.48 0.48 0.48 0.50 0.54 0.57 0.59 0.60 0.61
0.56 0.55 0.55 0.56 0.58 0.58 0.58 0.59 0.59 0.59 0.59 0.59 0.56 0.54 0.53 0.53 0.52 0.52 0.52 0.52 0.51 0.50 0.51 0.50 0.51 0.51 0.51 0.51 0.51 0.50 0.50 0.49 0.48 0.47 0.46 0.47 0.49 0.52 0.54 0.56 0.57 0.58
0.58 0.58 0.59 0.61 0.60 0.59 0.60 0.59 0.59 0.58 0.59 0.59 0.57 0.56 0.55 0.55 0.54 0.53 0.53 0.53 0.53 0.52 0.51 0.51 0.51 0.52 0.52 0.52 0.52 0.52 0.52 0.51 0.49 0.47 0.45 0.45 0.46 0.46 0.50 0.51 0.51 0.52
0.60 0.59 0.58 0.59 0.60 0.61 0.61 0.59 0.58 0.57 0.56 0.56 0.56 0.56 0.54 0.54 0.53 0.51 0.50 0.49 0.50 0.50 0.51 0.52 0.52 0.53 0.53 0.53 0.52 0.52 0.52 0.52 0.50 0.47 0.45 0.44 0.46 0.45 0.45 0.47 0.47 0.47

ECMWFNIL_prec_pwat_048.txt.gz
Precipitable_Water
0.92 0.88 0.87 0.85 0.80 0.81 0.81 0.77 0.76 0.74 0.71 0.71 0.69 0.69 0.69 0.65 0.65 0.63 0.62 0.63 0.61 0.58 0.56 0.54 0.51 0.48 0.48 0.47 0.49 0.46 0.45 0.45 0.46 0.48 0.46 0.46 0.44 0.45 0.44 0.43 0.45 0.45
0.93 0.92 0.90 0.88 0.81 0.82 0.81 0.78 0.78 0.77 0.75 0.74 0.72 0.73 0.70 0.68 0.69 0.69 0.67 0.66 0.66 0.64 0.65 0.63 0.59 0.55 0.52 0.50 0.51 0.49 0.46 0.44 0.43 0.45 0.41 0.40 0.40 0.39 0.37 0.40 0.41 0.42
0.94 0.93 0.90 0.85 0.76 0.71 0.72 0.74 0.76 0.77 0.76 0.78 0.75 0.71 0.69 0.71 0.71 0.73 0.72 0.72 0.68 0.66 0.68 0.69 0.67 0.65 0.62 0.60 0.58 0.56 0.53 0.51 0.48 0.48 0.45 0.41 0.41 0.39 0.41 0.43 0.40 0.42
0.96 0.96 0.92 0.90 0.82 0.70 0.71 0.71 0.71 0.72 0.79 0.78 0.74 0.69 0.70 0.72 0.74 0.73 0.73 0.72 0.71 0.71 0.72 0.73 0.73 0.72 0.70 0.69 0.67 0.61 0.60 0.59 0.59 0.59 0.56 0.55 0.52 0.50 0.49 0.49 0.51 0.52
0.95 0.96 0.95 0.92 0.86 0.75 0.70 0.68 0.67 0.69 0.71 0.77 0.76 0.69 0.69 0.71 0.73 0.73 0.74 0.76 0.77 0.76 0.76 0.75 0.78 0.76 0.77 0.76 0.75 0.71 0.68 0.66 0.67 0.67 0.62 0.59 0.60 0.59 0.59 0.57 0.54 0.53
0.97 0.99 0.97 0.94 0.90 0.78 0.68 0.67 0.68 0.71 0.72 0.74 0.77 0.73 0.70 0.71 0.74 0.74 0.75 0.77 0.80 0.80 0.80 0.81 0.80 0.82 0.82 0.79 0.79 0.78 0.79 0.75 0.71 0.72 0.69 0.65 0.63 0.64 0.62 0.62 0.60 0.58
0.97 1.00 0.97 0.95 0.91 0.84 0.73 0.69 0.71 0.73 0.74 0.76 0.78 0.77 0.75 0.74 0.74 0.76 0.79 0.80 0.81 0.82 0.83 0.83 0.84 0.85 0.88 0.88 0.86 0.84 0.83 0.82 0.81 0.79 0.77 0.73 0.70 0.66 0.65 0.66 0.62 0.60
0.98 1.01 0.99 0.95 0.92 0.89 0.80 0.72 0.72 0.73 0.74 0.74 0.72 0.74 0.75 0.74 0.74 0.77 0.82 0.86 0.84 0.84 0.87 0.89 0.90 0.93 0.96 0.98 0.98 0.98 0.97 0.98 0.97 0.94 0.88 0.85 0.82 0.79 0.73 0.69 0.67 0.65
1.00 1.00 0.99 0.97 0.93 0.89 0.82 0.76 0.73 0.76 0.76 0.73 0.73 0.75 0.77 0.76 0.77 0.78 0.82 0.86 0.88 0.87 0.87 0.90 0.93 0.96 1.00 1.01 1.01 1.01 1.01 1.02 1.03 1.01 0.99 0.97 0.94 0.92 0.90 0.88 0.80 0.75
0.99 0.99 0.97 0.97 0.94 0.90 0.84 0.82 0.80 0.78 0.78 0.77 0.77 0.79 0.80 0.81 0.84 0.85 0.84 0.87 0.90 0.91 0.90 0.90 0.93 0.97 0.98 1.01 1.02 1.02 1.00 1.01 1.03 1.04 1.05 1.04 1.01 1.00 0.99 0.99 0.97 0.94
1.00 0.98 0.96 0.98 1.00 0.97 0.89 0.86 0.88 0.82 0.79 0.80 0.82 0.82 0.84 0.85 0.88 0.91 0.89 0.90 0.92 0.92 0.92 0.92 0.94 0.97 0.99 1.01 1.03 1.04 1.03 1.02 1.01 1.01 1.03 1.04 1.05 1.04 1.02 1.02 1.01 1.00
1.02 1.00 1.01 1.04 1.03 1.03 0.95 0.91 0.91 0.90 0.85 0.85 0.85 0.83 0.87 0.89 0.90 0.93 0.94 0.97 0.98 0.98 0.96 0.95 0.96 0.97 0.98 1.00 1.01 1.03 1.03 1.03 1.03 1.03 1.04 1.04 1.04 1.05 1.06 1.06 1.03 1.02
1.03 1.03 1.08 1.10 1.08 1.03 1.05 0.96 0.96 0.96 0.94 0.89 0.90 0.91 0.89 0.89 0.89 0.89 0.94 0.97 0.99 0.99 0.97 0.95 0.94 0.96 0.98 1.01 1.02 1.04 1.05 1.05 1.06 1.05 1.03 1.03 1.02 1.02 1.04 1.05 1.05 1.05
1.08 1.06 1.03 1.00 0.99 1.02 1.04 1.02 0.97 0.98 0.98 0.97 0.97 0.95 0.93 0.92 0.91 0.89 0.93 0.94 0.95 0.94 0.96 0.97 0.97 0.96 0.99 1.01 1.03 1.05 1.06 1.05 1.07 1.06 1.03 1.03 1.03 1.03 1.04 1.05 1.06 1.06
1.05 1.01 1.04 1.02 1.04 1.06 1.03 1.01 1.01 0.99 1.00 1.02 1.02 1.01 1.02 1.01 0.98 0.96 0.95 0.94 0.97 0.97 0.97 0.97 0.97 0.99 1.01 1.02 1.03 1.04 1.03 1.01 1.03 1.05 1.04 1.03 1.04 1.06 1.05 1.04 1.04 1.04
1.01 1.03 1.00 1.01 1.01 1.00 1.03 1.05 1.04 1.05 1.05 1.02 0.98 0.99 1.02 1.07 1.08 1.02 1.00 0.99 0.98 1.01 1.04 1.05 1.04 1.04 0.99 1.00 1.00 1.01 1.01 1.02 1.05 1.04 1.02 1.00 0.97 0.97 0.98 0.96 0.96 0.97
0.96 0.99 1.01 1.00 0.99 1.00 1.03 1.02 1.00 1.02 0.99 0.98 0.96 0.96 0.94 0.98 1.03 1.00 0.95 0.97 0.98 1.00 1.02 1.04 1.04 1.01 1.00 1.00 1.00 0.97 0.95 0.93 0.90 0.89 0.86 0.84 0.87 0.88 0.86 0.83 0.86 0.88
0.95 0.93 0.91 0.95 0.97 0.99 1.01 1.00 1.00 0.98 0.97 0.99 1.00 1.00 1.00 1.02 0.98 0.97 0.99 1.02 1.00 1.00 1.02 1.02 0.98 0.95 0.92 0.89 0.86 0.85 0.82 0.81 0.79 0.75 0.73 0.69 0.69 0.70 0.72 0.74 0.73 0.73
0.92 0.92 0.91 0.92 0.93 0.94 0.95 0.95 0.97 0.99 0.99 0.99 0.98 1.00 1.01 1.01 1.01 0.99 0.99 0.97 0.93 0.92 0.90 0.86 0.82 0.79 0.76 0.73 0.69 0.66 0.64 0.62 0.64 0.61 0.62 0.64 0.64 0.64 0.64 0.64 0.65 0.64
0.83 0.85 0.85 0.86 0.88 0.90 0.91 0.92 0.96 0.96 0.94 0.97 0.96 0.97 0.96 0.95 0.98 0.96 0.88 0.83 0.79 0.74 0.72 0.71 0.66 0.64 0.61 0.59 0.57 0.55 0.53 0.52 0.56 0.55 0.57 0.58 0.58 0.60 0.62 0.64 0.64 0.63
0.64 0.64 0.65 0.67 0.71 0.76 0.80 0.83 0.85 0.85 0.83 0.84 0.84 0.84 0.83 0.82 0.84 0.78 0.72 0.68 0.67 0.65 0.63 0.59 0.56 0.55 0.52 0.49 0.46 0.44 0.45 0.47 0.52 0.51 0.52 0.54 0.57 0.58 0.60 0.61 0.61 0.63
0.60 0.59 0.60 0.62 0.63 0.63 0.63 0.64 0.66 0.67 0.67 0.70 0.71 0.72 0.73 0.71 0.69 0.65 0.62 0.60 0.59 0.57 0.55 0.49 0.48 0.47 0.46 0.45 0.45 0.45 0.46 0.57 0.56 0.56 0.55 0.55 0.56 0.58 0.60 0.62 0.63 0.62
0.60 0.59 0.58 0.59 0.59 0.59 0.59 0.60 0.61 0.61 0.62 0.63 0.61 0.61 0.60 0.60 0.60 0.59 0.58 0.55 0.54 0.54 0.53 0.50 0.49 0.49 0.49 0.49 0.47 0.47 0.51 0.53 0.50 0.54 0.53 0.53 0.55 0.57 0.58 0.58 0.61 0.61
0.61 0.61 0.60 0.60 0.59 0.58 0.58 0.58 0.58 0.60 0.60 0.61 0.60 0.58 0.58 0.57 0.55 0.54 0.54 0.55 0.53 0.54 0.55 0.56 0.52 0.52 0.51 0.51 0.50 0.49 0.50 0.56 0.56 0.55 0.50 0.51 0.52 0.53 0.54 0.54 0.54 0.56
0.61 0.60 0.60 0.59 0.59 0.61 0.60 0.60 0.60 0.61 0.63 0.64 0.64 0.61 0.61 0.59 0.57 0.57 0.57 0.57 0.59 0.57 0.53 0.57 0.57 0.53 0.53 0.53 0.52 0.51 0.51 0.57 0.56 0.56 0.54 0.53 0.52 0.51 0.52 0.51 0.51 0.52
0.62 0.61 0.61 0.60 0.59 0.59 0.60 0.60 0.64 0.66 0.60 0.62 0.66 0.67 0.64 0.62 0.61 0.61 0.61 0.60 0.61 0.57 0.55 0.59 0.61 0.58 0.56 0.55 0.54 0.52 0.50 0.52 0.55 0.57 0.56 0.51 0.52 0.53 0.52 0.49 0.49 0.48